UAL647 KIAH-LFPG

Flight info

Callsign UAL647
Flight time 9h 33m
Altitude 37000
Route LURIC8 HAWES DCT ELD DCT MEM DCT BWG DCT SHIPR DCT AIR DCT ELZ DCT VIEEW DCT EXTOL DCT BOS DCT BRADD N261B NICSO/M084F390 DCT 48N050W 50N040W 52N030W 54N020W DCT DOGAL DCT BEXET/N0483F410 DCT MORAG DCT NUCHU L18 MID/N0455F290 Y803 SFD UM605 BIBAX
Aircraft B772/H-SDE2E3FGHIJ5LORVWXY/LB1D1

Departure

Time 2026-05-04 16:34
Airport George Bush Intercontinental Airport (KIAH)

Arrival

Time 2026-05-05 02:07
Airport Charles de Gaulle International Airport (LFPG)
Time Latitude Longitude Altitude Speed Heading
2026-05-04 16:20 29.97828 -95.34660 104 ft 0 kts 360°
2026-05-04 16:26 29.97783 -95.34648 102 ft 4 kts 319°
2026-05-04 16:27 29.97766 -95.34601 101 ft 0 kts 268°
2026-05-04 16:29 29.97766 -95.34605 101 ft 4 kts 268°
2026-05-04 16:30 29.97660 -95.34873 103 ft 0 kts 288°
2026-05-04 16:31 29.97825 -95.34989 105 ft 34 kts 330°
2026-05-04 16:31 29.98427 -95.35349 107 ft 30 kts 330°
2026-05-04 16:32 29.98755 -95.35739 108 ft 12 kts 169°
2026-05-04 16:33 29.98670 -95.35697 107 ft 7 kts 163°
2026-05-04 16:33 29.97647 -95.35081 110 ft 163 kts 149°
2026-05-04 16:34 29.95903 -95.33312 1850 ft 174 kts 121°
2026-05-04 16:34 29.95657 -95.31934 2518 ft 191 kts 77°
2026-05-04 16:35 30.00332 -95.30032 3025 ft 277 kts 358°
2026-05-04 16:35 30.05020 -95.26487 5134 ft 283 kts 41°
2026-05-04 16:36 30.06560 -95.25032 5852 ft 289 kts 34°
2026-05-04 16:36 30.09917 -95.22481 7395 ft 289 kts 27°
2026-05-04 16:37 30.13419 -95.20172 8930 ft 290 kts 25°
2026-05-04 16:37 30.15192 -95.19051 9706 ft 291 kts 24°
2026-05-04 16:37 30.18832 -95.16791 10570 ft 316 kts 23°
2026-05-04 16:38 30.22993 -95.14226 10909 ft 362 kts 24°
2026-05-04 16:39 30.29699 -95.09235 12625 ft 393 kts 30°
2026-05-04 16:39 30.34250 -95.05573 14123 ft 403 kts 29°
2026-05-04 16:40 30.38880 -95.01854 15463 ft 412 kts 29°
2026-05-04 16:40 30.43670 -94.98082 16745 ft 419 kts 27°
2026-05-04 16:41 30.48607 -94.94352 17978 ft 428 kts 27°
2026-05-04 16:41 30.56191 -94.88549 19636 ft 439 kts 27°
2026-05-04 16:42 30.63924 -94.82635 21236 ft 448 kts 26°
2026-05-04 16:43 30.69134 -94.78633 22230 ft 455 kts 26°
2026-05-04 16:43 30.74459 -94.74529 23255 ft 461 kts 26°
2026-05-04 16:43 30.77143 -94.72457 23730 ft 465 kts 26°
2026-05-04 16:44 30.87983 -94.64070 25458 ft 473 kts 25°
2026-05-04 16:45 30.93492 -94.59796 26214 ft 478 kts 24°
2026-05-04 16:46 31.01857 -94.53299 27377 ft 482 kts 23°
2026-05-04 16:46 31.07442 -94.48981 28044 ft 486 kts 22°
2026-05-04 16:47 31.13108 -94.44573 28656 ft 490 kts 22°
2026-05-04 16:47 31.18806 -94.40137 29264 ft 493 kts 22°
2026-05-04 16:48 31.27407 -94.33426 30055 ft 496 kts 21°
2026-05-04 16:48 31.30266 -94.31191 30398 ft 493 kts 21°
2026-05-04 16:49 31.35962 -94.26754 30996 ft 491 kts 21°
2026-05-04 16:49 31.41646 -94.22316 31518 ft 490 kts 21°
2026-05-04 16:50 31.47301 -94.17880 32115 ft 488 kts 21°
2026-05-04 16:50 31.52896 -94.13479 32731 ft 485 kts 21°
2026-05-04 16:51 31.58495 -94.09073 33260 ft 484 kts 21°
2026-05-04 16:51 31.60382 -94.07587 33451 ft 483 kts 21°
2026-05-04 16:51 31.65922 -94.03214 34003 ft 481 kts 20°
2026-05-04 16:52 31.71470 -93.98825 34481 ft 479 kts 20°
2026-05-04 16:52 31.74232 -93.96636 34773 ft 478 kts 20°
2026-05-04 16:53 31.79727 -93.92290 35303 ft 473 kts 20°
2026-05-04 16:53 31.87916 -93.85949 35918 ft 469 kts 19°
2026-05-04 16:54 31.90654 -93.83873 36138 ft 468 kts 18°
2026-05-04 16:55 32.01591 -93.75795 36992 ft 460 kts 17°
2026-05-04 16:55 32.07040 -93.71915 37057 ft 459 kts 16°
2026-05-04 16:56 32.20762 -93.62555 37060 ft 452 kts 14°
2026-05-04 16:57 32.29004 -93.57216 37060 ft 449 kts 13°
2026-05-04 16:58 32.40046 -93.50417 37067 ft 448 kts 12°
2026-05-04 17:00 32.56912 -93.40802 37055 ft 448 kts 10°
2026-05-04 17:01 32.71092 -93.33391 37073 ft 445 kts
2026-05-04 17:02 32.82513 -93.27841 37065 ft 441 kts
2026-05-04 17:03 32.91077 -93.23920 37062 ft 439 kts
2026-05-04 17:03 32.99682 -93.20187 37052 ft 437 kts
2026-05-04 17:04 33.11121 -93.15540 37034 ft 433 kts
2026-05-04 17:05 33.22625 -93.11236 37028 ft 431 kts
2026-05-04 17:06 33.31212 -93.08262 37033 ft 429 kts
2026-05-04 17:07 33.38874 -93.05779 37033 ft 427 kts
2026-05-04 17:07 33.45601 -93.03736 37040 ft 425 kts 359°
2026-05-04 17:08 33.54215 -93.01294 37033 ft 422 kts 359°
2026-05-04 17:09 33.59947 -92.99778 37032 ft 420 kts 358°
2026-05-04 17:09 33.65663 -92.98355 37067 ft 419 kts 357°
2026-05-04 17:10 33.79913 -92.95200 37029 ft 416 kts 355°
2026-05-04 17:11 33.85621 -92.94097 37024 ft 415 kts 355°
2026-05-04 17:12 33.94188 -92.92616 37048 ft 414 kts 354°
2026-05-04 17:13 34.08481 -92.90624 37020 ft 413 kts 352°
2026-05-04 17:14 34.19896 -92.89444 37046 ft 412 kts 351°
2026-05-04 17:15 34.28483 -92.88802 37010 ft 411 kts 350°
2026-05-04 17:16 34.39893 -92.88266 37011 ft 408 kts 348°
2026-05-04 17:17 34.51198 -92.88048 36993 ft 412 kts 354°
2026-05-04 17:17 34.59126 -92.82162 37002 ft 503 kts 40°
2026-05-04 17:18 34.60972 -92.78424 36997 ft 529 kts 54°
2026-05-04 17:18 34.62727 -92.69458 37002 ft 567 kts 81°
2026-05-04 17:19 34.61634 -92.59818 36999 ft 587 kts 106°
2026-05-04 17:19 34.57498 -92.51419 36982 ft 584 kts 140°
2026-05-04 17:20 34.50675 -92.46840 37000 ft 545 kts 178°
2026-05-04 17:20 34.43599 -92.47378 36992 ft 490 kts 210°
2026-05-04 17:20 34.40574 -92.48630 37009 ft 485 kts 212°
2026-05-04 17:21 34.34082 -92.51204 37012 ft 497 kts 207°
2026-05-04 17:21 34.27298 -92.53071 37012 ft 508 kts 202°
2026-05-04 17:22 34.20294 -92.54545 37003 ft 512 kts 201°
2026-05-04 17:23 34.06247 -92.57417 37013 ft 512 kts 202°
2026-05-04 17:24 33.95768 -92.59643 37014 ft 512 kts 202°
2026-05-04 17:25 33.81734 -92.62613 37016 ft 511 kts 202°
2026-05-04 17:26 33.67750 -92.65571 37024 ft 512 kts 202°
2026-05-04 17:26 33.57099 -92.67339 37004 ft 538 kts 185°
2026-05-04 17:27 33.49868 -92.64040 37023 ft 584 kts 145°
2026-05-04 17:27 33.45029 -92.56277 37029 ft 587 kts 105°
2026-05-04 17:28 33.44405 -92.46924 37034 ft 548 kts 65°
2026-05-04 17:29 33.50187 -92.36904 37022 ft 481 kts 32°
2026-05-04 17:29 33.56769 -92.27394 37066 ft 502 kts 39°
2026-05-04 17:31 33.67438 -92.10688 37052 ft 505 kts 38°
2026-05-04 17:32 33.78222 -91.94073 37021 ft 503 kts 38°
2026-05-04 17:33 33.86813 -91.80780 37030 ft 502 kts 39°
2026-05-04 17:34 33.95343 -91.67528 37045 ft 502 kts 39°
2026-05-04 17:35 34.06015 -91.50882 37060 ft 502 kts 40°
2026-05-04 17:36 34.10291 -91.44191 37032 ft 503 kts 40°
2026-05-04 17:36 34.14563 -91.37492 37028 ft 504 kts 40°
2026-05-04 17:37 34.18839 -91.30774 37031 ft 504 kts 40°
2026-05-04 17:37 34.23116 -91.24043 37053 ft 505 kts 40°
2026-05-04 17:38 34.27397 -91.17292 37033 ft 506 kts 40°
2026-05-04 17:38 34.31645 -91.10579 37022 ft 506 kts 41°
2026-05-04 17:39 34.38068 -91.00406 37015 ft 505 kts 41°
2026-05-04 17:39 34.42330 -90.93641 37012 ft 505 kts 41°
2026-05-04 17:40 34.45872 -90.88009 37011 ft 505 kts 41°
2026-05-04 17:40 34.50128 -90.81230 37015 ft 506 kts 41°
2026-05-04 17:41 34.54386 -90.74435 37027 ft 506 kts 42°
2026-05-04 17:41 34.58644 -90.67625 37004 ft 506 kts 42°
2026-05-04 17:42 34.62862 -90.60867 36996 ft 505 kts 42°
2026-05-04 17:42 34.67100 -90.54065 37001 ft 505 kts 42°
2026-05-04 17:43 34.71335 -90.47253 37001 ft 505 kts 42°
2026-05-04 17:43 34.75566 -90.40435 37009 ft 506 kts 43°
2026-05-04 17:44 34.79809 -90.33586 37006 ft 506 kts 44°
2026-05-04 17:44 34.84038 -90.26740 36995 ft 505 kts 44°
2026-05-04 17:45 34.88234 -90.19936 36993 ft 505 kts 44°
2026-05-04 17:45 34.92448 -90.13086 36994 ft 505 kts 44°
2026-05-04 17:46 34.96660 -90.06222 36989 ft 505 kts 44°
2026-05-04 17:46 35.00869 -89.99353 37040 ft 505 kts 45°
2026-05-04 17:47 35.05012 -89.92399 37021 ft 507 kts 47°
2026-05-04 17:47 35.09050 -89.85333 37010 ft 507 kts 47°
2026-05-04 17:48 35.13046 -89.78301 37002 ft 507 kts 47°
2026-05-04 17:48 35.17083 -89.71222 36989 ft 506 kts 47°
2026-05-04 17:49 35.21119 -89.64153 36985 ft 506 kts 47°
2026-05-04 17:49 35.25148 -89.57087 37018 ft 506 kts 48°
2026-05-04 17:50 35.29152 -89.50048 36988 ft 507 kts 48°
2026-05-04 17:50 35.33175 -89.42960 36983 ft 506 kts 48°
2026-05-04 17:51 35.37190 -89.35871 36979 ft 506 kts 48°
2026-05-04 17:51 35.41200 -89.28778 36983 ft 505 kts 48°
2026-05-04 17:52 35.45203 -89.21682 36987 ft 505 kts 49°
2026-05-04 17:52 35.49198 -89.14586 36981 ft 505 kts 49°
2026-05-04 17:53 35.53169 -89.07520 36991 ft 506 kts 49°
2026-05-04 17:53 35.57165 -89.00393 36989 ft 506 kts 49°
2026-05-04 17:54 35.61160 -88.93255 37010 ft 505 kts 49°
2026-05-04 17:54 35.65108 -88.86172 36980 ft 506 kts 50°
2026-05-04 17:55 35.69067 -88.79007 36961 ft 504 kts 50°
2026-05-04 17:55 35.73024 -88.71910 36984 ft 503 kts 49°
2026-05-04 17:56 35.76998 -88.64809 36987 ft 504 kts 50°
2026-05-04 17:56 35.80956 -88.57671 36981 ft 504 kts 50°
2026-05-04 17:57 35.84903 -88.50521 36976 ft 505 kts 50°
2026-05-04 17:57 35.88829 -88.43394 36974 ft 505 kts 50°
2026-05-04 17:58 35.92777 -88.36221 36965 ft 505 kts 50°
2026-05-04 17:58 35.96722 -88.29039 36966 ft 505 kts 50°
2026-05-04 17:59 36.00668 -88.21841 36969 ft 505 kts 50°
2026-05-04 18:00 36.06558 -88.11068 36971 ft 505 kts 50°
2026-05-04 18:00 36.10488 -88.03863 36975 ft 505 kts 51°
2026-05-04 18:01 36.14416 -87.96642 36977 ft 505 kts 51°
2026-05-04 18:01 36.18342 -87.89411 36973 ft 506 kts 51°
2026-05-04 18:02 36.24197 -87.78600 36994 ft 506 kts 51°
2026-05-04 18:02 36.28118 -87.71341 36971 ft 506 kts 51°
2026-05-04 18:03 36.32039 -87.64066 36977 ft 506 kts 51°
2026-05-04 18:03 36.35949 -87.56795 36968 ft 506 kts 51°
2026-05-04 18:04 36.39835 -87.49553 36980 ft 506 kts 51°
2026-05-04 18:05 36.45693 -87.38610 36962 ft 507 kts 51°
2026-05-04 18:05 36.49595 -87.31299 36974 ft 507 kts 51°
2026-05-04 18:06 36.55440 -87.20321 36945 ft 507 kts 51°
2026-05-04 18:06 36.59300 -87.13049 36943 ft 507 kts 52°
2026-05-04 18:07 36.63183 -87.05720 36950 ft 506 kts 52°
2026-05-04 18:07 36.67061 -86.98382 36945 ft 506 kts 52°
2026-05-04 18:08 36.70932 -86.91043 36977 ft 506 kts 52°
2026-05-04 18:08 36.74801 -86.83692 36953 ft 507 kts 52°
2026-05-04 18:09 36.82510 -86.68993 36951 ft 508 kts 52°
2026-05-04 18:10 36.86371 -86.61604 36952 ft 508 kts 52°
2026-05-04 18:10 36.90224 -86.54211 36942 ft 508 kts 52°
2026-05-04 18:11 36.94071 -86.46807 36988 ft 508 kts 52°
2026-05-04 18:11 36.97907 -86.39447 36968 ft 508 kts 52°
2026-05-04 18:12 37.01823 -86.32071 36949 ft 508 kts 51°
2026-05-04 18:12 37.05737 -86.24705 36959 ft 508 kts 52°
2026-05-04 18:13 37.09631 -86.17329 36969 ft 507 kts 52°
2026-05-04 18:14 37.15431 -86.06287 36969 ft 507 kts 52°
2026-05-04 18:14 37.19312 -85.98875 36975 ft 507 kts 52°
2026-05-04 18:15 37.27042 -85.84068 36936 ft 508 kts 52°
2026-05-04 18:16 37.30903 -85.76647 36934 ft 507 kts 52°
2026-05-04 18:16 37.34759 -85.69220 36940 ft 507 kts 52°
2026-05-04 18:17 37.40535 -85.58063 36961 ft 507 kts 52°
2026-05-04 18:18 37.46284 -85.46921 36930 ft 508 kts 52°
2026-05-04 18:18 37.50123 -85.39461 36926 ft 507 kts 52°
2026-05-04 18:19 37.55867 -85.28265 36971 ft 507 kts 52°
2026-05-04 18:19 37.59689 -85.20793 36961 ft 507 kts 52°
2026-05-04 18:20 37.63508 -85.13311 36943 ft 506 kts 52°
2026-05-04 18:20 37.67317 -85.05831 36946 ft 505 kts 53°
2026-05-04 18:21 37.71104 -84.98378 36947 ft 503 kts 53°
2026-05-04 18:21 37.74880 -84.90929 36943 ft 502 kts 53°
2026-05-04 18:22 37.78615 -84.83544 36945 ft 500 kts 53°
2026-05-04 18:22 37.82358 -84.76124 36940 ft 500 kts 53°
2026-05-04 18:23 37.86094 -84.68700 36938 ft 499 kts 53°
2026-05-04 18:23 37.89798 -84.61322 36909 ft 499 kts 53°
2026-05-04 18:24 37.93509 -84.53905 36903 ft 498 kts 53°
2026-05-04 18:24 37.97238 -84.46512 36934 ft 496 kts 51°
2026-05-04 18:25 38.01299 -84.39458 36919 ft 494 kts 47°
2026-05-04 18:25 38.05494 -84.32557 36943 ft 494 kts 47°
2026-05-04 18:26 38.09672 -84.25602 36940 ft 495 kts 48°
2026-05-04 18:26 38.13108 -84.19791 36938 ft 495 kts 48°
2026-05-04 18:27 38.17898 -84.11623 36935 ft 495 kts 49°
2026-05-04 18:27 38.21316 -84.05779 36932 ft 495 kts 49°
2026-05-04 18:28 38.25422 -83.98750 36929 ft 494 kts 49°
2026-05-04 18:28 38.29524 -83.91716 36923 ft 494 kts 49°
2026-05-04 18:29 38.33623 -83.84674 36920 ft 494 kts 49°
2026-05-04 18:29 38.37711 -83.77635 36916 ft 494 kts 49°
2026-05-04 18:30 38.43822 -83.67084 36925 ft 493 kts 49°
2026-05-04 18:31 38.47890 -83.60043 36939 ft 493 kts 49°
2026-05-04 18:31 38.51934 -83.53026 36935 ft 493 kts 49°
2026-05-04 18:32 38.56000 -83.45954 36910 ft 493 kts 49°
2026-05-04 18:32 38.60049 -83.38900 36913 ft 492 kts 49°
2026-05-04 18:33 38.64096 -83.31832 36901 ft 491 kts 49°
2026-05-04 18:33 38.68112 -83.24805 36911 ft 491 kts 49°
2026-05-04 18:34 38.72147 -83.17729 36909 ft 492 kts 49°
2026-05-04 18:34 38.76182 -83.10636 36910 ft 493 kts 50°
2026-05-04 18:35 38.80221 -83.03518 36901 ft 493 kts 49°
2026-05-04 18:35 38.84251 -82.96403 36917 ft 494 kts 50°
2026-05-04 18:36 38.88267 -82.89297 36897 ft 494 kts 50°
2026-05-04 18:36 38.92297 -82.82150 36912 ft 493 kts 50°
2026-05-04 18:37 38.96315 -82.75009 36917 ft 492 kts 50°
2026-05-04 18:37 39.00316 -82.67882 36906 ft 492 kts 50°
2026-05-04 18:38 39.04314 -82.60744 36908 ft 491 kts 50°
2026-05-04 18:38 39.08288 -82.53635 36904 ft 491 kts 50°
2026-05-04 18:39 39.12281 -82.46476 36918 ft 491 kts 50°
2026-05-04 18:39 39.16261 -82.39323 36904 ft 491 kts 50°
2026-05-04 18:40 39.20210 -82.32208 36897 ft 490 kts 50°
2026-05-04 18:40 39.24178 -82.25046 36895 ft 490 kts 50°
2026-05-04 18:41 39.28136 -82.17885 36893 ft 490 kts 50°
2026-05-04 18:41 39.32088 -82.10719 36916 ft 490 kts 50°
2026-05-04 18:42 39.36040 -82.03536 36888 ft 490 kts 50°
2026-05-04 18:42 39.39984 -81.96353 36883 ft 489 kts 50°
2026-05-04 18:43 39.43893 -81.89217 36883 ft 489 kts 50°
2026-05-04 18:43 39.47826 -81.82021 36878 ft 489 kts 50°
2026-05-04 18:44 39.51746 -81.74832 36891 ft 489 kts 50°
2026-05-04 18:44 39.55644 -81.67667 36881 ft 489 kts 50°
2026-05-04 18:45 39.59562 -81.60450 36880 ft 489 kts 50°
2026-05-04 18:45 39.63467 -81.53239 36878 ft 489 kts 50°
2026-05-04 18:46 39.67373 -81.46008 36879 ft 489 kts 50°
2026-05-04 18:46 39.71258 -81.38802 36906 ft 489 kts 50°
2026-05-04 18:47 39.75163 -81.31542 36882 ft 489 kts 50°
2026-05-04 18:47 39.79061 -81.24276 36882 ft 489 kts 50°
2026-05-04 18:48 39.82950 -81.17011 36865 ft 489 kts 50°
2026-05-04 18:48 39.86811 -81.09779 36873 ft 488 kts 50°
2026-05-04 18:49 39.90686 -81.02505 36888 ft 488 kts 50°
2026-05-04 18:49 39.94553 -80.95221 36870 ft 488 kts 50°
2026-05-04 18:50 39.98413 -80.87934 36878 ft 488 kts 50°
2026-05-04 18:50 40.02413 -80.80786 36864 ft 484 kts 44°
2026-05-04 18:51 40.07107 -80.74546 36862 ft 480 kts 39°
2026-05-04 18:51 40.11869 -80.68487 36894 ft 481 kts 39°
2026-05-04 18:52 40.16646 -80.62331 36886 ft 481 kts 39°
2026-05-04 18:52 40.21367 -80.56179 36896 ft 481 kts 39°
2026-05-04 18:53 40.26101 -80.49979 36885 ft 481 kts 39°
2026-05-04 18:53 40.30824 -80.43784 36904 ft 480 kts 39°
2026-05-04 18:54 40.35542 -80.37582 36864 ft 480 kts 39°
2026-05-04 18:54 40.40225 -80.31417 36877 ft 479 kts 39°
2026-05-04 18:55 40.44934 -80.25204 36870 ft 479 kts 40°
2026-05-04 18:55 40.51979 -80.15883 36886 ft 479 kts 39°
2026-05-04 18:56 40.56678 -80.09651 36872 ft 480 kts 40°
2026-05-04 18:56 40.61369 -80.03414 36872 ft 479 kts 40°
2026-05-04 18:57 40.66061 -79.97164 36871 ft 479 kts 40°
2026-05-04 18:57 40.70751 -79.90904 36880 ft 480 kts 40°
2026-05-04 18:58 40.75446 -79.84624 36869 ft 481 kts 40°
2026-05-04 18:58 40.80120 -79.78357 36889 ft 481 kts 40°
2026-05-04 18:59 40.84815 -79.72049 36871 ft 482 kts 40°
2026-05-04 18:59 40.89527 -79.65705 36877 ft 482 kts 40°
2026-05-04 19:00 40.94203 -79.59395 36869 ft 483 kts 40°
2026-05-04 19:00 40.98910 -79.53032 36860 ft 483 kts 40°
2026-05-04 19:01 41.03617 -79.46653 36850 ft 483 kts 40°
2026-05-04 19:01 41.08308 -79.40281 36874 ft 483 kts 40°
2026-05-04 19:02 41.12978 -79.33924 36849 ft 483 kts 40°
2026-05-04 19:02 41.17671 -79.27522 36851 ft 483 kts 40°
2026-05-04 19:03 41.22348 -79.21129 36849 ft 483 kts 40°
2026-05-04 19:03 41.27026 -79.14720 36873 ft 482 kts 40°
2026-05-04 19:04 41.31680 -79.08331 36850 ft 483 kts 40°
2026-05-04 19:04 41.36365 -79.01884 36854 ft 483 kts 40°
2026-05-04 19:05 41.41009 -78.95477 36844 ft 483 kts 40°
2026-05-04 19:05 41.45672 -78.89031 36861 ft 483 kts 40°
2026-05-04 19:06 41.50333 -78.82575 36832 ft 483 kts 40°
2026-05-04 19:06 41.54996 -78.76101 36834 ft 483 kts 40°
2026-05-04 19:07 41.59649 -78.69627 36826 ft 483 kts 40°
2026-05-04 19:07 41.64300 -78.63140 36841 ft 482 kts 40°
2026-05-04 19:08 41.68904 -78.56703 36832 ft 482 kts 40°
2026-05-04 19:08 41.73533 -78.50218 36832 ft 481 kts 40°
2026-05-04 19:09 41.78158 -78.43725 36832 ft 482 kts 40°
2026-05-04 19:09 41.82778 -78.37225 36844 ft 482 kts 40°
2026-05-04 19:10 41.87403 -78.30699 36835 ft 482 kts 40°
2026-05-04 19:10 41.92022 -78.24167 36826 ft 483 kts 40°
2026-05-04 19:11 41.96646 -78.17611 36834 ft 483 kts 40°
2026-05-04 19:11 42.01237 -78.11079 36850 ft 482 kts 40°
2026-05-04 19:12 42.08038 -78.01032 36826 ft 488 kts 47°
2026-05-04 19:13 42.11623 -77.93183 36835 ft 497 kts 58°
2026-05-04 19:13 42.14611 -77.84835 36825 ft 498 kts 59°
2026-05-04 19:14 42.17606 -77.76407 36812 ft 498 kts 58°
2026-05-04 19:14 42.20114 -77.69415 36804 ft 497 kts 58°
2026-05-04 19:15 42.23138 -77.61015 36799 ft 497 kts 58°
2026-05-04 19:15 42.26664 -77.51201 36797 ft 497 kts 58°
2026-05-04 19:16 42.29163 -77.44216 36802 ft 496 kts 58°
2026-05-04 19:16 42.32161 -77.35811 36814 ft 496 kts 58°
2026-05-04 19:17 42.35133 -77.27451 36802 ft 496 kts 58°
2026-05-04 19:17 42.38118 -77.19022 36800 ft 496 kts 58°
2026-05-04 19:18 42.41088 -77.10607 36790 ft 495 kts 58°
2026-05-04 19:18 42.44162 -77.02287 36786 ft 491 kts 53°
2026-05-04 19:19 42.48033 -76.94779 36799 ft 484 kts 46°
2026-05-04 19:19 42.52070 -76.87460 36803 ft 485 kts 47°
2026-05-04 19:20 42.56043 -76.80099 36799 ft 486 kts 47°
2026-05-04 19:20 42.60015 -76.72658 36800 ft 486 kts 47°
2026-05-04 19:21 42.63849 -76.65112 36791 ft 489 kts 57°
2026-05-04 19:21 42.65111 -76.60772 36824 ft 500 kts 70°
2026-05-04 19:21 42.65735 -76.56082 36803 ft 507 kts 82°
2026-05-04 19:22 42.65519 -76.46490 36817 ft 514 kts 89°
2026-05-04 19:22 42.65121 -76.36765 36814 ft 515 kts 89°
2026-05-04 19:23 42.64766 -76.27031 36801 ft 516 kts 88°
2026-05-04 19:23 42.64444 -76.17293 36804 ft 516 kts 88°
2026-05-04 19:24 42.64127 -76.07542 36805 ft 516 kts 88°
2026-05-04 19:24 42.63799 -75.97814 36803 ft 514 kts 89°
2026-05-04 19:25 42.63465 -75.88182 36797 ft 514 kts 88°
2026-05-04 19:25 42.63121 -75.78508 36811 ft 512 kts 89°
2026-05-04 19:26 42.62768 -75.68827 36813 ft 512 kts 89°
2026-05-04 19:26 42.62407 -75.59168 36820 ft 511 kts 89°
2026-05-04 19:27 42.62038 -75.49525 36838 ft 511 kts 89°
2026-05-04 19:27 42.61665 -75.39931 36823 ft 512 kts 89°
2026-05-04 19:28 42.61278 -75.30249 36828 ft 513 kts 90°
2026-05-04 19:28 42.60884 -75.20566 36825 ft 514 kts 90°
2026-05-04 19:29 42.60481 -75.10874 36831 ft 514 kts 90°
2026-05-04 19:29 42.60070 -75.01182 36839 ft 514 kts 90°
2026-05-04 19:30 42.59652 -74.91535 36822 ft 514 kts 90°
2026-05-04 19:30 42.59224 -74.81828 36825 ft 514 kts 90°
2026-05-04 19:31 42.58787 -74.72134 36829 ft 514 kts 90°
2026-05-04 19:31 42.58344 -74.62440 36827 ft 514 kts 90°
2026-05-04 19:32 42.57895 -74.52813 36845 ft 514 kts 90°
2026-05-04 19:32 42.57434 -74.43137 36829 ft 514 kts 90°
2026-05-04 19:33 42.56967 -74.33455 36843 ft 514 kts 91°
2026-05-04 19:33 42.56490 -74.23761 36831 ft 516 kts 91°
2026-05-04 19:34 42.56005 -74.14048 36823 ft 516 kts 91°
2026-05-04 19:34 42.55509 -74.04316 36824 ft 517 kts 91°
2026-05-04 19:35 42.55006 -73.94599 36823 ft 517 kts 91°
2026-05-04 19:35 42.54492 -73.84856 36828 ft 518 kts 91°
2026-05-04 19:36 42.53975 -73.75174 36824 ft 518 kts 91°
2026-05-04 19:36 42.53415 -73.65417 36816 ft 519 kts 92°
2026-05-04 19:37 42.52882 -73.56024 36827 ft 519 kts 92°
2026-05-04 19:37 42.52342 -73.46313 36832 ft 519 kts 92°
2026-05-04 19:38 42.51793 -73.36551 36833 ft 518 kts 92°
2026-05-04 19:38 42.51233 -73.26799 36838 ft 518 kts 92°
2026-05-04 19:39 42.50662 -73.17045 36850 ft 519 kts 93°
2026-05-04 19:39 42.50084 -73.07337 36846 ft 519 kts 93°
2026-05-04 19:40 42.49509 -72.97813 36832 ft 519 kts 93°
2026-05-04 19:40 42.48913 -72.88055 36847 ft 520 kts 93°
2026-05-04 19:41 42.48308 -72.78277 36839 ft 521 kts 93°
2026-05-04 19:41 42.47692 -72.68482 36831 ft 522 kts 93°
2026-05-04 19:42 42.47067 -72.58670 36838 ft 521 kts 94°
2026-05-04 19:42 42.46436 -72.48890 36833 ft 521 kts 94°
2026-05-04 19:43 42.45806 -72.39293 36815 ft 503 kts 94°
2026-05-04 19:43 42.45496 -72.34625 36836 ft 491 kts 94°
2026-05-04 19:43 42.45193 -72.30075 36821 ft 480 kts 94°
2026-05-04 19:43 42.44894 -72.25615 36818 ft 469 kts 94°
2026-05-04 19:44 42.44601 -72.21261 36823 ft 459 kts 94°
2026-05-04 19:44 42.44030 -72.12827 36823 ft 440 kts 94°
2026-05-04 19:45 42.43477 -72.04754 36732 ft 424 kts 94°
2026-05-04 19:45 42.43203 -72.00779 36399 ft 424 kts 94°
2026-05-04 19:45 42.42927 -71.96794 36062 ft 424 kts 94°
2026-05-04 19:45 42.42652 -71.92846 35941 ft 418 kts 94°
2026-05-04 19:46 42.42378 -71.88944 35755 ft 415 kts 94°
2026-05-04 19:46 42.42103 -71.85049 35441 ft 415 kts 94°
2026-05-04 19:46 42.41845 -71.81217 35233 ft 414 kts 92°
2026-05-04 19:46 42.41600 -71.77309 35121 ft 418 kts 92°
2026-05-04 19:47 42.41342 -71.73382 35218 ft 417 kts 92°
2026-05-04 19:47 42.41079 -71.69499 35369 ft 411 kts 91°
2026-05-04 19:47 42.40812 -71.65649 35198 ft 412 kts 92°
2026-05-04 19:47 42.40533 -71.61811 34916 ft 413 kts 92°
2026-05-04 19:48 42.40239 -71.57837 34402 ft 435 kts 92°
2026-05-04 19:48 42.39926 -71.53678 34096 ft 450 kts 92°
2026-05-04 19:48 42.39583 -71.49481 34455 ft 444 kts 95°
2026-05-04 19:48 42.39243 -71.45439 35020 ft 432 kts 95°
2026-05-04 19:49 42.38925 -71.41415 35308 ft 430 kts 94°
2026-05-04 19:49 42.38622 -71.37354 35168 ft 439 kts 94°
2026-05-04 19:49 42.38317 -71.33168 34954 ft 452 kts 94°
2026-05-04 19:49 42.38005 -71.28935 35237 ft 451 kts 94°
2026-05-04 19:50 42.37689 -71.24713 35407 ft 454 kts 95°
2026-05-04 19:50 42.37033 -71.16108 35488 ft 465 kts 95°
2026-05-04 19:51 42.36358 -71.07370 35579 ft 475 kts 95°
2026-05-04 19:51 42.36274 -70.98411 35644 ft 482 kts 81°
2026-05-04 19:52 42.37645 -70.89479 35721 ft 488 kts 71°
2026-05-04 19:52 42.39633 -70.80618 35961 ft 494 kts 70°
2026-05-04 19:52 42.40625 -70.76214 36134 ft 495 kts 71°
2026-05-04 19:53 42.41629 -70.71699 36306 ft 496 kts 71°
2026-05-04 19:53 42.42601 -70.67267 36468 ft 497 kts 71°
2026-05-04 19:53 42.43576 -70.62773 36649 ft 498 kts 71°
2026-05-04 19:53 42.44545 -70.58271 36755 ft 500 kts 72°
2026-05-04 19:54 42.45519 -70.53729 36809 ft 503 kts 72°
2026-05-04 19:54 42.47465 -70.44606 36837 ft 511 kts 72°
2026-05-04 19:55 42.49443 -70.35300 36840 ft 516 kts 72°
2026-05-04 19:55 42.51420 -70.25965 36839 ft 520 kts 72°
2026-05-04 19:56 42.53429 -70.16442 36836 ft 523 kts 72°
2026-05-04 19:56 42.55415 -70.06982 36839 ft 525 kts 72°
2026-05-04 19:57 42.57397 -69.97428 36853 ft 527 kts 73°
2026-05-04 19:57 42.59396 -69.87822 36846 ft 527 kts 72°
2026-05-04 19:58 42.61419 -69.78259 36865 ft 527 kts 72°
2026-05-04 19:58 42.63401 -69.68733 36853 ft 526 kts 72°
2026-05-04 19:59 42.65360 -69.59155 36856 ft 526 kts 73°
2026-05-04 19:59 42.66980 -69.51191 36841 ft 525 kts 73°
2026-05-04 20:00 42.69244 -69.40040 36850 ft 526 kts 73°
2026-05-04 20:00 42.71186 -69.30438 36871 ft 526 kts 73°
2026-05-04 20:01 42.72795 -69.22450 36872 ft 527 kts 73°
2026-05-04 20:01 42.74724 -69.12830 36850 ft 528 kts 73°
2026-05-04 20:02 42.76652 -69.03166 36866 ft 528 kts 73°
2026-05-04 20:02 42.78571 -68.93502 36862 ft 529 kts 73°
2026-05-04 20:03 42.80485 -68.83813 36848 ft 530 kts 74°
2026-05-04 20:03 42.82383 -68.74162 36862 ft 531 kts 74°
2026-05-04 20:04 42.84285 -68.64439 36856 ft 532 kts 74°
2026-05-04 20:04 42.86187 -68.54668 36867 ft 532 kts 74°
2026-05-04 20:05 42.88080 -68.44896 36867 ft 533 kts 74°
2026-05-04 20:05 42.89965 -68.35116 36878 ft 534 kts 74°
2026-05-04 20:06 42.91846 -68.25306 36882 ft 534 kts 74°
2026-05-04 20:06 42.93708 -68.15546 36866 ft 535 kts 75°
2026-05-04 20:07 42.95577 -68.05705 36869 ft 535 kts 75°
2026-05-04 20:07 42.97436 -67.95859 36870 ft 535 kts 75°
2026-05-04 20:08 42.99280 -67.86041 36867 ft 536 kts 75°
2026-05-04 20:08 43.01127 -67.76157 36873 ft 537 kts 75°
2026-05-04 20:09 43.02966 -67.66260 36865 ft 537 kts 75°
2026-05-04 20:09 43.04771 -67.56352 36881 ft 537 kts 76°
2026-05-04 20:10 43.06554 -67.46493 36871 ft 537 kts 76°
2026-05-04 20:10 43.08378 -67.36576 36873 ft 537 kts 76°
2026-05-04 20:11 43.10195 -67.26652 36875 ft 537 kts 76°
2026-05-04 20:11 43.11993 -67.16725 36864 ft 537 kts 76°
2026-05-04 20:12 43.13787 -67.06773 36871 ft 538 kts 76°
2026-05-04 20:12 43.16084 -66.97098 36870 ft 537 kts 65°
2026-05-04 20:13 43.19451 -66.87990 36895 ft 536 kts 60°
2026-05-04 20:13 43.22969 -66.78952 36872 ft 537 kts 60°
2026-05-04 20:14 43.26451 -66.69875 36847 ft 538 kts 61°
2026-05-04 20:14 43.29905 -66.60742 36865 ft 539 kts 61°
2026-05-04 20:15 43.33351 -66.51570 36866 ft 540 kts 61°
2026-05-04 20:15 43.36778 -66.42436 36857 ft 540 kts 60°
2026-05-04 20:16 43.40207 -66.33211 36722 ft 543 kts 62°
2026-05-04 20:16 43.43740 -66.24090 36795 ft 539 kts 59°
2026-05-04 20:17 43.47207 -66.14944 36843 ft 538 kts 61°
2026-05-04 20:17 43.50539 -66.05704 36869 ft 538 kts 62°
2026-05-04 20:18 43.53883 -65.96473 36864 ft 539 kts 61°
2026-05-04 20:18 43.57266 -65.87238 36867 ft 540 kts 61°
2026-05-04 20:19 43.60659 -65.77994 36863 ft 540 kts 61°
2026-05-04 20:19 43.64050 -65.68726 36861 ft 541 kts 61°
2026-05-04 20:20 43.67413 -65.59494 36859 ft 541 kts 61°
2026-05-04 20:20 43.70792 -65.50180 36838 ft 542 kts 62°
2026-05-04 20:21 43.74168 -65.40843 36857 ft 542 kts 62°
2026-05-04 20:21 43.79194 -65.26889 36842 ft 542 kts 62°
2026-05-04 20:22 43.82553 -65.17520 36831 ft 543 kts 62°
2026-05-04 20:22 43.85900 -65.08154 36825 ft 543 kts 62°
2026-05-04 20:23 43.89242 -64.98771 36822 ft 542 kts 62°
2026-05-04 20:23 43.92573 -64.89386 36808 ft 542 kts 62°
2026-05-04 20:24 43.95897 -64.79990 36813 ft 543 kts 62°
2026-05-04 20:24 43.99220 -64.70563 36813 ft 543 kts 62°
2026-05-04 20:25 44.02515 -64.61184 36810 ft 544 kts 62°
2026-05-04 20:25 44.05826 -64.51727 36818 ft 544 kts 62°
2026-05-04 20:26 44.09130 -64.42256 36822 ft 544 kts 62°
2026-05-04 20:26 44.12424 -64.32780 36780 ft 544 kts 63°
2026-05-04 20:27 44.15715 -64.23281 36784 ft 543 kts 63°
2026-05-04 20:27 44.18969 -64.13857 36809 ft 543 kts 63°
2026-05-04 20:28 44.22241 -64.04346 36792 ft 543 kts 63°
2026-05-04 20:28 44.25513 -63.94801 36792 ft 543 kts 63°
2026-05-04 20:29 44.28744 -63.85342 36806 ft 543 kts 63°
2026-05-04 20:29 44.31992 -63.75801 36797 ft 543 kts 63°
2026-05-04 20:30 44.35228 -63.66259 36769 ft 543 kts 63°
2026-05-04 20:30 44.38456 -63.56711 36786 ft 542 kts 63°
2026-05-04 20:31 44.41649 -63.47230 36796 ft 542 kts 63°
2026-05-04 20:31 44.44857 -63.37669 36783 ft 542 kts 63°
2026-05-04 20:32 44.48055 -63.28106 36786 ft 542 kts 63°
2026-05-04 20:32 44.51243 -63.18537 36787 ft 542 kts 64°
2026-05-04 20:33 44.54422 -63.08962 36797 ft 541 kts 64°
2026-05-04 20:33 44.57593 -62.99377 36779 ft 541 kts 64°
2026-05-04 20:34 44.60733 -62.89850 36794 ft 541 kts 64°
2026-05-04 20:34 44.63891 -62.80235 36790 ft 542 kts 64°
2026-05-04 20:35 44.67039 -62.70614 36807 ft 542 kts 64°
2026-05-04 20:35 44.70180 -62.60978 36792 ft 542 kts 64°
2026-05-04 20:36 44.73313 -62.51332 36783 ft 541 kts 64°
2026-05-04 20:36 44.76411 -62.41760 36780 ft 541 kts 64°
2026-05-04 20:37 44.79529 -62.32092 36793 ft 541 kts 64°
2026-05-04 20:37 44.82629 -62.22442 36779 ft 541 kts 64°
2026-05-04 20:38 44.85721 -62.12780 36781 ft 541 kts 64°
2026-05-04 20:38 44.88812 -62.03087 36783 ft 541 kts 65°
2026-05-04 20:39 44.91871 -61.93459 36777 ft 541 kts 65°
2026-05-04 20:39 44.94940 -61.83763 36769 ft 541 kts 65°
2026-05-04 20:40 44.98002 -61.74051 36761 ft 540 kts 65°
2026-05-04 20:40 45.01051 -61.64346 36766 ft 540 kts 65°
2026-05-04 20:41 45.04089 -61.54639 36761 ft 540 kts 65°
2026-05-04 20:41 45.07103 -61.44972 36743 ft 539 kts 65°
2026-05-04 20:42 45.10119 -61.35263 36742 ft 539 kts 65°
2026-05-04 20:42 45.13135 -61.25518 36742 ft 539 kts 65°
2026-05-04 20:43 45.16141 -61.15765 36729 ft 539 kts 65°
2026-05-04 20:43 45.19116 -61.06079 36716 ft 539 kts 65°
2026-05-04 20:44 45.22107 -60.96304 36727 ft 540 kts 65°
2026-05-04 20:44 45.25092 -60.86506 36712 ft 541 kts 66°
2026-05-04 20:45 45.28069 -60.76699 36717 ft 541 kts 66°
2026-05-04 20:45 45.31045 -60.66858 36701 ft 541 kts 66°
2026-05-04 20:46 45.33994 -60.57068 36699 ft 541 kts 66°
2026-05-04 20:46 45.36948 -60.47224 36712 ft 541 kts 66°
2026-05-04 20:47 45.39893 -60.37369 36692 ft 540 kts 66°
2026-05-04 20:47 45.42331 -60.29183 36704 ft 539 kts 66°
2026-05-04 20:48 45.45726 -60.17740 36708 ft 539 kts 66°
2026-05-04 20:48 45.48161 -60.09502 36710 ft 539 kts 66°
2026-05-04 20:49 45.51042 -59.99715 36714 ft 539 kts 66°
2026-05-04 20:49 45.53934 -59.89853 36706 ft 538 kts 66°
2026-05-04 20:50 45.56816 -59.79985 36704 ft 538 kts 67°
2026-05-04 20:50 45.59689 -59.70111 36716 ft 539 kts 67°
2026-05-04 20:51 45.62568 -59.60179 36710 ft 541 kts 67°
2026-05-04 20:51 45.65423 -59.50287 36717 ft 542 kts 67°
2026-05-04 20:52 45.68291 -59.40309 36715 ft 543 kts 67°
2026-05-04 20:52 45.71153 -59.30309 36713 ft 543 kts 67°
2026-05-04 20:53 45.74014 -59.20277 36707 ft 543 kts 68°
2026-05-04 20:53 45.76862 -59.10248 36707 ft 542 kts 68°
2026-05-04 20:54 45.79674 -59.00307 36701 ft 541 kts 68°
2026-05-04 20:54 45.82492 -58.90300 36709 ft 541 kts 68°
2026-05-04 20:55 45.85295 -58.80304 36701 ft 540 kts 68°
2026-05-04 20:55 45.88091 -58.70298 36697 ft 539 kts 68°
2026-05-04 20:56 45.90873 -58.60298 36703 ft 539 kts 68°
2026-05-04 20:56 45.93645 -58.50291 36699 ft 538 kts 68°
2026-05-04 20:57 45.96386 -58.40356 36692 ft 538 kts 68°
2026-05-04 20:57 45.99136 -58.30348 36693 ft 538 kts 68°
2026-05-04 20:58 46.01875 -58.20338 36691 ft 538 kts 68°
2026-05-04 20:58 46.04612 -58.10289 36700 ft 539 kts 68°
2026-05-04 20:59 46.07318 -58.00316 36692 ft 539 kts 69°
2026-05-04 20:59 46.10040 -57.90239 36689 ft 539 kts 69°
2026-05-04 21:00 46.12751 -57.80165 36697 ft 539 kts 69°
2026-05-04 21:00 46.15452 -57.70081 36688 ft 539 kts 69°
2026-05-04 21:01 46.18147 -57.59977 36681 ft 539 kts 69°
2026-05-04 21:01 46.20834 -57.49861 36690 ft 539 kts 69°
2026-05-04 21:02 46.23503 -57.39770 36687 ft 540 kts 69°
2026-05-04 21:02 46.26176 -57.29618 36678 ft 540 kts 69°
2026-05-04 21:03 46.28840 -57.19458 36682 ft 541 kts 69°
2026-05-04 21:03 46.31491 -57.09291 36679 ft 541 kts 69°
2026-05-04 21:04 46.34140 -56.99098 36688 ft 541 kts 69°
2026-05-04 21:04 46.36781 -56.88904 36671 ft 541 kts 70°
2026-05-04 21:05 46.39410 -56.78703 36655 ft 541 kts 70°
2026-05-04 21:05 46.42019 -56.68530 36664 ft 541 kts 70°
2026-05-04 21:06 46.44636 -56.58280 36648 ft 542 kts 70°
2026-05-04 21:06 46.47246 -56.48013 36644 ft 542 kts 70°
2026-05-04 21:07 46.49822 -56.37833 36647 ft 541 kts 70°
2026-05-04 21:07 46.52411 -56.27557 36638 ft 541 kts 70°
2026-05-04 21:08 46.54988 -56.17283 36615 ft 540 kts 70°
2026-05-04 21:08 46.57553 -56.07013 36630 ft 541 kts 71°
2026-05-04 21:09 46.60110 -55.96726 36645 ft 541 kts 71°
2026-05-04 21:09 46.62659 -55.86422 36651 ft 541 kts 71°
2026-05-04 21:10 46.65185 -55.76163 36665 ft 542 kts 71°
2026-05-04 21:10 46.66582 -55.70473 36682 ft 542 kts 71°
2026-05-04 21:14 46.68221 -55.63775 36653 ft 542 kts 71°
2026-05-04 21:14 46.70725 -55.53505 36676 ft 541 kts 71°
2026-05-04 21:15 46.73235 -55.43166 36669 ft 541 kts 71°
2026-05-04 21:15 46.75741 -55.32794 36667 ft 541 kts 71°
2026-05-04 21:16 46.78239 -55.22405 36663 ft 542 kts 72°
2026-05-04 21:16 46.80723 -55.12022 36651 ft 542 kts 72°
2026-05-04 21:17 46.83185 -55.01684 36655 ft 542 kts 72°
2026-05-04 21:17 46.85655 -54.91268 36655 ft 542 kts 72°
2026-05-04 21:18 46.88116 -54.80837 36636 ft 542 kts 72°
2026-05-04 21:18 46.90566 -54.70402 36640 ft 542 kts 72°
2026-05-04 21:19 46.92987 -54.60043 36622 ft 541 kts 72°
2026-05-04 21:19 46.95417 -54.49595 36625 ft 541 kts 72°
2026-05-04 21:20 46.97833 -54.39159 36615 ft 541 kts 72°
2026-05-04 21:20 47.00233 -54.28739 36601 ft 540 kts 72°
2026-05-04 21:21 47.02622 -54.18315 36598 ft 539 kts 72°
2026-05-04 21:21 47.04998 -54.07901 36584 ft 538 kts 73°
2026-05-04 21:22 47.07362 -53.97487 36571 ft 537 kts 73°
2026-05-04 21:22 47.09700 -53.87140 36569 ft 537 kts 73°
2026-05-04 21:23 47.12040 -53.76731 36563 ft 537 kts 73°
2026-05-04 21:23 47.14371 -53.66309 36582 ft 537 kts 73°
2026-05-04 21:24 47.16696 -53.55866 36578 ft 537 kts 73°
2026-05-04 21:24 47.18991 -53.45499 36571 ft 537 kts 73°
2026-05-04 21:25 47.21294 -53.35051 36574 ft 537 kts 73°
2026-05-04 21:25 47.23585 -53.24603 36536 ft 537 kts 74°
2026-05-04 21:26 47.25872 -53.14122 36566 ft 538 kts 74°
2026-05-04 21:26 47.28154 -53.03606 36580 ft 540 kts 74°
2026-05-04 21:27 47.30436 -52.93036 36577 ft 541 kts 74°
2026-05-04 21:27 47.32712 -52.82447 36573 ft 542 kts 74°
2026-05-04 21:28 47.34965 -52.71907 36584 ft 543 kts 74°
2026-05-04 21:28 47.37224 -52.61282 36579 ft 542 kts 75°
2026-05-04 21:29 47.39469 -52.50666 36581 ft 542 kts 75°
2026-05-04 21:29 47.41703 -52.40042 36613 ft 541 kts 75°
2026-05-04 21:30 47.43925 -52.29420 36618 ft 541 kts 75°
2026-05-04 21:30 47.46131 -52.18805 36633 ft 540 kts 75°
2026-05-04 21:31 47.49422 -52.02867 36664 ft 540 kts 75°
2026-05-04 21:32 47.51903 -51.92361 36663 ft 541 kts 71°
2026-05-04 21:32 47.54637 -51.82062 36688 ft 541 kts 70°
2026-05-04 21:33 47.57378 -51.71694 36680 ft 540 kts 71°
2026-05-04 21:33 47.60068 -51.61301 36655 ft 539 kts 71°
2026-05-04 21:34 47.62729 -51.50899 36677 ft 539 kts 71°
2026-05-04 21:34 47.65378 -51.40491 36698 ft 539 kts 71°
2026-05-04 21:35 47.67577 -51.31827 36690 ft 539 kts 71°
2026-05-04 21:35 47.70215 -51.21398 36690 ft 539 kts 72°
2026-05-04 21:36 47.73266 -51.09273 36708 ft 539 kts 72°
2026-05-04 21:36 47.75447 -51.00565 36703 ft 539 kts 72°
2026-05-04 21:37 47.78049 -50.90133 36713 ft 538 kts 72°
2026-05-04 21:37 47.80638 -50.79702 36707 ft 538 kts 72°
2026-05-04 21:38 47.83215 -50.69273 36723 ft 537 kts 72°
2026-05-04 21:38 47.85784 -50.58825 36715 ft 536 kts 72°
2026-05-04 21:39 47.88338 -50.48390 36720 ft 536 kts 73°
2026-05-04 21:39 47.90882 -50.37939 36741 ft 536 kts 73°
2026-05-04 21:40 47.93414 -50.27488 36741 ft 536 kts 73°
2026-05-04 21:40 47.95919 -50.17097 36745 ft 535 kts 73°
2026-05-04 21:41 47.98424 -50.06637 36740 ft 535 kts 73°
2026-05-04 21:41 48.00937 -49.96188 36757 ft 534 kts 72°
2026-05-04 21:42 48.03563 -49.85777 36755 ft 534 kts 72°
2026-05-04 21:42 48.06210 -49.75387 36737 ft 533 kts 72°
2026-05-04 21:43 48.08806 -49.65063 36750 ft 533 kts 72°
2026-05-04 21:43 48.11386 -49.54676 36776 ft 533 kts 73°
2026-05-04 21:44 48.13961 -49.44241 36777 ft 533 kts 73°
2026-05-04 21:44 48.16504 -49.33892 36774 ft 533 kts 73°
2026-05-04 21:45 48.19054 -49.23475 36789 ft 532 kts 73°
2026-05-04 21:45 48.21596 -49.13043 36788 ft 532 kts 73°
2026-05-04 21:46 48.24130 -49.02594 36791 ft 532 kts 73°
2026-05-04 21:46 48.26656 -48.92130 36792 ft 532 kts 73°
2026-05-04 21:47 48.29150 -48.81750 36775 ft 532 kts 73°
2026-05-04 21:47 48.31650 -48.71294 36806 ft 532 kts 73°
2026-05-04 21:48 48.34146 -48.60804 36813 ft 533 kts 73°
2026-05-04 21:48 48.36635 -48.50290 36804 ft 533 kts 74°
2026-05-04 21:49 48.39113 -48.39779 36826 ft 533 kts 74°
2026-05-04 21:49 48.41584 -48.29241 36824 ft 533 kts 74°
2026-05-04 21:50 48.44028 -48.18771 36830 ft 533 kts 74°
2026-05-04 21:50 48.46479 -48.08220 36824 ft 532 kts 74°
2026-05-04 21:51 48.48909 -47.97705 36838 ft 531 kts 75°
2026-05-04 21:51 48.51329 -47.87185 36843 ft 530 kts 75°
2026-05-04 21:52 48.53735 -47.76675 36843 ft 529 kts 75°
2026-05-04 21:52 48.56127 -47.66170 36846 ft 528 kts 75°
2026-05-04 21:53 48.58503 -47.55683 36855 ft 527 kts 75°
2026-05-04 21:53 48.60865 -47.45208 36860 ft 527 kts 75°
2026-05-04 21:54 48.63204 -47.34784 36866 ft 526 kts 75°
2026-05-04 21:54 48.65544 -47.24304 36872 ft 525 kts 76°
2026-05-04 21:55 48.67870 -47.13837 36885 ft 524 kts 76°
2026-05-04 21:55 48.70185 -47.03361 36877 ft 523 kts 76°
2026-05-04 21:56 48.72483 -46.92914 36875 ft 522 kts 76°
2026-05-04 21:56 48.74755 -46.82532 36851 ft 521 kts 76°
2026-05-04 21:57 48.77024 -46.72116 36884 ft 519 kts 77°
2026-05-04 21:57 48.79283 -46.61685 36893 ft 519 kts 77°
2026-05-04 21:58 48.81528 -46.51264 36894 ft 519 kts 77°
2026-05-04 21:58 48.83750 -46.40903 36854 ft 519 kts 77°
2026-05-04 21:59 48.85977 -46.30468 36890 ft 518 kts 78°
2026-05-04 21:59 48.88187 -46.20058 36893 ft 517 kts 78°
2026-05-04 22:00 48.90382 -46.09662 36895 ft 516 kts 78°
2026-05-04 22:00 48.92569 -45.99256 36904 ft 516 kts 78°
2026-05-04 22:01 48.94723 -45.88949 36902 ft 514 kts 78°
2026-05-04 22:01 48.96885 -45.78555 36907 ft 513 kts 78°
2026-05-04 22:02 48.99015 -45.68260 36906 ft 512 kts 78°
2026-05-04 22:02 49.01149 -45.57890 36913 ft 512 kts 78°
2026-05-04 22:03 49.03271 -45.47527 36911 ft 510 kts 79°
2026-05-04 22:03 49.05362 -45.37261 36909 ft 509 kts 79°
2026-05-04 22:04 49.07452 -45.26943 36916 ft 509 kts 79°
2026-05-04 22:04 49.09532 -45.16622 36923 ft 508 kts 79°
2026-05-04 22:05 49.11602 -45.06298 36902 ft 507 kts 79°
2026-05-04 22:05 49.13656 -44.95999 36916 ft 506 kts 79°
2026-05-04 22:06 49.15684 -44.85774 36919 ft 506 kts 79°
2026-05-04 22:06 49.17717 -44.75470 36877 ft 505 kts 79°
2026-05-04 22:07 49.19730 -44.65220 36924 ft 505 kts 79°
2026-05-04 22:07 49.21742 -44.54910 36931 ft 505 kts 79°
2026-05-04 22:08 49.23747 -44.44581 36930 ft 506 kts 80°
2026-05-04 22:08 49.25730 -44.34312 36938 ft 507 kts 80°
2026-05-04 22:09 49.27719 -44.23956 36935 ft 507 kts 80°
2026-05-04 22:09 49.29702 -44.13582 36928 ft 506 kts 80°
2026-05-04 22:10 49.31670 -44.03230 36931 ft 505 kts 80°
2026-05-04 22:10 49.33624 -43.92891 36942 ft 504 kts 80°
2026-05-04 22:11 49.35567 -43.82549 36939 ft 503 kts 80°
2026-05-04 22:11 49.37484 -43.72294 36912 ft 502 kts 80°
2026-05-04 22:12 49.39397 -43.61999 36935 ft 501 kts 80°
2026-05-04 22:12 49.41303 -43.51685 36941 ft 501 kts 80°
2026-05-04 22:13 49.43197 -43.41377 36949 ft 502 kts 80°
2026-05-04 22:13 49.45075 -43.31101 36949 ft 503 kts 80°
2026-05-04 22:14 49.46955 -43.20752 36949 ft 503 kts 80°
2026-05-04 22:14 49.48829 -43.10382 36955 ft 504 kts 80°
2026-05-04 22:15 49.50708 -42.99920 36957 ft 504 kts 81°
2026-05-04 22:15 49.52557 -42.89573 36961 ft 505 kts 81°
2026-05-04 22:16 49.54408 -42.79150 36954 ft 505 kts 80°
2026-05-04 22:16 49.56256 -42.68687 36968 ft 505 kts 80°
2026-05-04 22:17 49.58080 -42.58295 36965 ft 505 kts 80°
2026-05-04 22:17 49.59908 -42.47816 36980 ft 506 kts 80°
2026-05-04 22:18 49.61729 -42.37317 36959 ft 506 kts 80°
2026-05-04 22:18 49.63539 -42.26820 36991 ft 507 kts 80°
2026-05-04 22:19 49.65331 -42.16366 37013 ft 507 kts 80°
2026-05-04 22:19 49.67127 -42.05826 37013 ft 507 kts 80°
2026-05-04 22:20 49.68913 -41.95280 37022 ft 507 kts 80°
2026-05-04 22:20 49.70688 -41.84735 37018 ft 506 kts 80°
2026-05-04 22:21 49.72447 -41.74222 37042 ft 504 kts 80°
2026-05-04 22:21 49.74191 -41.63729 37056 ft 503 kts 80°
2026-05-04 22:22 49.75911 -41.53321 37025 ft 502 kts 80°
2026-05-04 22:22 49.77629 -41.42856 37044 ft 502 kts 79°
2026-05-04 22:23 49.79342 -41.32355 37074 ft 502 kts 79°
2026-05-04 22:23 49.80760 -41.23616 37079 ft 503 kts 79°
2026-05-04 22:24 49.82460 -41.13074 37083 ft 504 kts 79°
2026-05-04 22:24 49.84152 -41.02517 37094 ft 505 kts 79°
2026-05-04 22:25 49.85836 -40.91936 37083 ft 507 kts 79°
2026-05-04 22:25 49.87510 -40.81362 37110 ft 508 kts 79°
2026-05-04 22:26 49.89186 -40.70701 37112 ft 509 kts 79°
2026-05-04 22:26 49.90855 -40.60010 37114 ft 510 kts 79°
2026-05-04 22:27 49.92516 -40.49301 37122 ft 510 kts 79°
2026-05-04 22:27 49.94165 -40.38593 37130 ft 510 kts 78°
2026-05-04 22:28 49.95803 -40.27884 37143 ft 510 kts 78°
2026-05-04 22:28 49.97420 -40.17217 37141 ft 510 kts 78°
2026-05-04 22:29 49.99038 -40.06483 37147 ft 510 kts 78°
2026-05-04 22:29 50.00944 -39.95850 37158 ft 512 kts 70°
2026-05-04 22:30 50.03581 -39.85524 37161 ft 512 kts 69°
2026-05-04 22:30 50.06238 -39.75237 37164 ft 512 kts 69°
2026-05-04 22:31 50.08853 -39.64892 37160 ft 512 kts 70°
2026-05-04 22:31 50.11411 -39.54603 37175 ft 512 kts 69°
2026-05-04 22:32 50.13971 -39.44234 37183 ft 512 kts 69°
2026-05-04 22:32 50.16525 -39.33844 37179 ft 513 kts 69°
2026-05-04 22:33 50.19069 -39.23455 37192 ft 513 kts 69°
2026-05-04 22:33 50.21607 -39.13040 37191 ft 513 kts 69°
2026-05-04 22:34 50.24122 -39.02681 37201 ft 513 kts 69°
2026-05-04 22:34 50.26644 -38.92238 37197 ft 513 kts 69°
2026-05-04 22:35 50.29164 -38.81750 37208 ft 513 kts 69°
2026-05-04 22:35 50.31651 -38.71352 37219 ft 514 kts 68°
2026-05-04 22:36 50.34152 -38.60847 37228 ft 514 kts 68°
2026-05-04 22:36 50.36641 -38.50341 37229 ft 514 kts 68°
2026-05-04 22:37 50.39122 -38.39815 37240 ft 514 kts 68°
2026-05-04 22:37 50.41577 -38.29346 37244 ft 515 kts 68°
2026-05-04 22:38 50.44039 -38.18806 37242 ft 515 kts 68°
2026-05-04 22:38 50.46494 -38.08237 37254 ft 515 kts 68°
2026-05-04 22:39 50.48942 -37.97649 37255 ft 515 kts 68°
2026-05-04 22:39 50.51378 -37.87053 37271 ft 516 kts 68°
2026-05-04 22:40 50.53808 -37.76437 37265 ft 516 kts 68°
2026-05-04 22:40 50.56216 -37.65867 37274 ft 517 kts 68°
2026-05-04 22:41 50.58629 -37.55216 37281 ft 517 kts 68°
2026-05-04 22:41 50.61034 -37.44547 37291 ft 517 kts 67°
2026-05-04 22:42 50.63434 -37.33850 37289 ft 518 kts 67°
2026-05-04 22:42 50.65831 -37.23109 37297 ft 518 kts 67°
2026-05-04 22:43 50.68201 -37.12433 37296 ft 518 kts 68°
2026-05-04 22:43 50.70573 -37.01686 37315 ft 518 kts 66°
2026-05-04 22:44 50.72933 -36.90946 37303 ft 518 kts 66°
2026-05-04 22:44 50.75284 -36.80193 37309 ft 517 kts 66°
2026-05-04 22:45 50.77622 -36.69443 37315 ft 517 kts 67°
2026-05-04 22:45 50.81090 -36.53386 37322 ft 516 kts 66°
2026-05-04 22:46 50.83397 -36.42636 37314 ft 515 kts 66°
2026-05-04 22:46 50.85689 -36.31901 37323 ft 514 kts 66°
2026-05-04 22:47 50.87953 -36.21243 37325 ft 513 kts 66°
2026-05-04 22:47 50.90217 -36.10525 37330 ft 512 kts 66°
2026-05-04 22:48 50.92464 -35.99828 37341 ft 511 kts 66°
2026-05-04 22:48 50.94699 -35.89135 37335 ft 509 kts 66°
2026-05-04 22:49 50.96916 -35.78474 37328 ft 508 kts 66°
2026-05-04 22:49 50.99119 -35.67823 37336 ft 507 kts 66°
2026-05-04 22:50 51.01297 -35.57237 37341 ft 507 kts 66°
2026-05-04 22:50 51.03477 -35.46586 37351 ft 507 kts 66°
2026-05-04 22:51 51.05650 -35.35906 37351 ft 507 kts 66°
2026-05-04 22:51 51.07815 -35.25213 37356 ft 508 kts 66°
2026-05-04 22:52 51.09974 -35.14488 37348 ft 509 kts 66°
2026-05-04 22:52 51.12127 -35.03730 37343 ft 510 kts 66°
2026-05-04 22:53 51.14255 -34.93040 37352 ft 510 kts 66°
2026-05-04 22:53 51.16394 -34.82236 37388 ft 510 kts 66°
2026-05-04 22:54 51.18516 -34.71452 37362 ft 510 kts 66°
2026-05-04 22:54 51.20629 -34.60657 37357 ft 508 kts 66°
2026-05-04 22:55 51.22715 -34.49945 37358 ft 507 kts 66°
2026-05-04 22:55 51.24799 -34.39183 37361 ft 506 kts 66°
2026-05-04 22:56 51.26867 -34.28440 37367 ft 506 kts 66°
2026-05-04 22:56 51.28929 -34.17669 37375 ft 505 kts 66°
2026-05-04 22:57 51.30962 -34.06988 37360 ft 505 kts 66°
2026-05-04 22:57 51.32999 -33.96227 37364 ft 505 kts 66°
2026-05-04 22:58 51.35025 -33.85464 37381 ft 506 kts 66°
2026-05-04 22:58 51.37042 -33.74680 37378 ft 506 kts 66°
2026-05-04 22:59 51.39052 -33.63874 37373 ft 506 kts 66°
2026-05-04 22:59 51.41037 -33.53139 37375 ft 506 kts 66°
2026-05-04 23:00 51.43026 -33.42322 37395 ft 506 kts 67°
2026-05-04 23:00 51.45007 -33.31482 37387 ft 506 kts 67°
2026-05-04 23:01 51.46978 -33.20631 37382 ft 506 kts 67°
2026-05-04 23:01 51.48943 -33.09753 37386 ft 506 kts 67°
2026-05-04 23:02 51.50881 -32.98957 37424 ft 507 kts 67°
2026-05-04 23:02 51.52825 -32.88065 37394 ft 507 kts 67°
2026-05-04 23:03 51.54759 -32.77159 37389 ft 507 kts 68°
2026-05-04 23:03 51.56682 -32.66251 37398 ft 507 kts 68°
2026-05-04 23:04 51.58597 -32.55324 37393 ft 507 kts 68°
2026-05-04 23:04 51.60504 -32.44374 37393 ft 508 kts 68°
2026-05-04 23:05 51.62387 -32.33493 37402 ft 508 kts 68°
2026-05-04 23:05 51.64272 -32.22530 37404 ft 507 kts 68°
2026-05-04 23:06 51.66145 -32.11571 37402 ft 507 kts 68°
2026-05-04 23:06 51.68009 -32.00603 37405 ft 508 kts 69°
2026-05-04 23:07 51.69866 -31.89598 37408 ft 508 kts 69°
2026-05-04 23:07 51.71711 -31.78598 37415 ft 508 kts 69°
2026-05-04 23:08 51.73533 -31.67662 37411 ft 507 kts 69°
2026-05-04 23:08 51.75356 -31.56662 37436 ft 508 kts 70°
2026-05-04 23:09 51.77171 -31.45629 37419 ft 507 kts 70°
2026-05-04 23:09 51.78962 -31.34660 37416 ft 507 kts 70°
2026-05-04 23:10 51.80750 -31.23647 37420 ft 506 kts 70°
2026-05-04 23:10 51.82229 -31.14484 37420 ft 506 kts 70°
2026-05-04 23:11 51.83998 -31.03456 37424 ft 506 kts 71°
2026-05-04 23:11 51.85756 -30.92427 37423 ft 506 kts 71°
2026-05-04 23:12 51.87503 -30.81387 37426 ft 506 kts 71°
2026-05-04 23:12 51.89228 -30.70417 37426 ft 506 kts 71°
2026-05-04 23:13 51.90955 -30.59357 37416 ft 506 kts 72°
2026-05-04 23:13 51.92668 -30.48303 37427 ft 505 kts 72°
2026-05-04 23:14 51.94366 -30.37263 37427 ft 505 kts 72°
2026-05-04 23:14 51.96055 -30.26207 37433 ft 504 kts 72°
2026-05-04 23:15 51.97719 -30.15226 37448 ft 504 kts 72°
2026-05-04 23:15 51.99385 -30.04179 37425 ft 503 kts 72°
2026-05-04 23:16 52.01546 -29.93452 37426 ft 498 kts 64°
2026-05-04 23:16 52.04221 -29.83065 37427 ft 497 kts 63°
2026-05-04 23:17 52.06866 -29.72770 37448 ft 497 kts 64°
2026-05-04 23:17 52.09488 -29.62349 37435 ft 497 kts 64°
2026-05-04 23:18 52.12077 -29.51917 37427 ft 497 kts 64°
2026-05-04 23:18 52.14654 -29.41465 37429 ft 497 kts 64°
2026-05-04 23:19 52.17220 -29.31018 37430 ft 496 kts 65°
2026-05-04 23:19 52.19763 -29.20621 37431 ft 497 kts 65°
2026-05-04 23:20 52.22313 -29.10149 37424 ft 497 kts 65°
2026-05-04 23:20 52.24852 -28.99668 37426 ft 497 kts 65°
2026-05-04 23:21 52.27385 -28.89164 37423 ft 497 kts 65°
2026-05-04 23:21 52.29905 -28.78665 37431 ft 497 kts 65°
2026-05-04 23:22 52.32403 -28.68204 37425 ft 497 kts 66°
2026-05-04 23:22 52.34909 -28.57658 37426 ft 497 kts 66°
2026-05-04 23:23 52.37409 -28.47087 37423 ft 497 kts 66°
2026-05-04 23:23 52.39893 -28.36532 37431 ft 497 kts 66°
2026-05-04 23:24 52.42373 -28.25947 37420 ft 498 kts 66°
2026-05-04 23:24 52.44829 -28.15403 37424 ft 498 kts 66°
2026-05-04 23:25 52.47293 -28.04776 37421 ft 498 kts 66°
2026-05-04 23:25 52.49749 -27.94134 37430 ft 498 kts 67°
2026-05-04 23:26 52.52195 -27.83481 37420 ft 499 kts 67°
2026-05-04 23:26 52.54620 -27.72863 37415 ft 499 kts 67°
2026-05-04 23:27 52.57048 -27.62179 37418 ft 499 kts 67°
2026-05-04 23:27 52.59471 -27.51461 37427 ft 499 kts 67°
2026-05-04 23:28 52.61867 -27.40816 37416 ft 499 kts 67°
2026-05-04 23:28 52.64275 -27.30054 37418 ft 499 kts 67°
2026-05-04 23:29 52.66668 -27.19308 37415 ft 500 kts 68°
2026-05-04 23:29 52.69054 -27.08537 37415 ft 500 kts 68°
2026-05-04 23:30 52.71416 -26.97820 37418 ft 500 kts 68°
2026-05-04 23:30 52.73784 -26.87019 37411 ft 500 kts 68°
2026-05-04 23:31 52.76142 -26.76208 37411 ft 500 kts 68°
2026-05-04 23:31 52.78489 -26.65389 37407 ft 500 kts 68°
2026-05-04 23:32 52.80827 -26.54555 37410 ft 500 kts 68°
2026-05-04 23:32 52.83152 -26.43720 37406 ft 500 kts 68°
2026-05-04 23:33 52.85458 -26.32925 37406 ft 500 kts 68°
2026-05-04 23:33 52.87765 -26.22058 37401 ft 500 kts 68°
2026-05-04 23:34 52.90066 -26.11170 37415 ft 500 kts 69°
2026-05-04 23:34 52.92353 -26.00286 37403 ft 500 kts 69°
2026-05-04 23:35 52.94632 -25.89377 37401 ft 500 kts 69°
2026-05-04 23:35 52.96902 -25.78454 37402 ft 500 kts 69°
2026-05-04 23:36 52.99148 -25.67593 37390 ft 500 kts 69°
2026-05-04 23:36 53.01395 -25.56660 37393 ft 501 kts 69°
2026-05-04 23:37 53.03635 -25.45703 37391 ft 501 kts 69°
2026-05-04 23:37 53.05863 -25.34746 37401 ft 501 kts 69°
2026-05-04 23:38 53.08085 -25.23758 37410 ft 501 kts 69°
2026-05-04 23:38 53.10296 -25.12762 37400 ft 501 kts 70°
2026-05-04 23:39 53.12482 -25.01826 37389 ft 501 kts 70°
2026-05-04 23:39 53.14670 -24.90822 37391 ft 501 kts 70°
2026-05-04 23:40 53.16849 -24.79801 37394 ft 501 kts 70°
2026-05-04 23:40 53.19020 -24.68757 37398 ft 501 kts 70°
2026-05-04 23:41 53.21182 -24.57690 37380 ft 501 kts 70°
2026-05-04 23:41 53.23328 -24.46648 37391 ft 500 kts 70°
2026-05-04 23:42 53.25452 -24.35652 37387 ft 500 kts 70°
2026-05-04 23:42 53.27582 -24.24568 37400 ft 500 kts 70°
2026-05-04 23:43 53.29698 -24.13487 37388 ft 500 kts 70°
2026-05-04 23:43 53.31791 -24.02461 37382 ft 500 kts 71°
2026-05-04 23:44 53.33886 -23.91363 37381 ft 499 kts 71°
2026-05-04 23:44 53.35968 -23.80265 37383 ft 499 kts 71°
2026-05-04 23:45 53.38040 -23.69157 37378 ft 499 kts 71°
2026-05-04 23:45 53.40104 -23.58028 37374 ft 499 kts 71°
2026-05-04 23:46 53.42141 -23.46975 37375 ft 499 kts 71°
2026-05-04 23:46 53.44178 -23.35856 37374 ft 499 kts 71°
2026-05-04 23:47 53.46206 -23.24721 37380 ft 499 kts 71°
2026-05-04 23:47 53.48221 -23.13584 37374 ft 498 kts 71°
2026-05-04 23:48 53.50227 -23.02438 37369 ft 498 kts 71°
2026-05-04 23:48 53.52209 -22.91351 37369 ft 498 kts 71°
2026-05-04 23:49 53.54192 -22.80194 37380 ft 498 kts 72°
2026-05-04 23:49 53.56164 -22.69025 37364 ft 498 kts 72°
2026-05-04 23:50 53.58123 -22.57865 37363 ft 498 kts 72°
2026-05-04 23:50 53.60072 -22.46694 37362 ft 497 kts 72°
2026-05-04 23:51 53.62011 -22.35505 37361 ft 497 kts 72°
2026-05-04 23:51 53.63939 -22.24307 37362 ft 497 kts 72°
2026-05-04 23:52 53.65857 -22.13104 37351 ft 497 kts 72°
2026-05-04 23:52 53.67750 -22.01971 37358 ft 497 kts 72°
2026-05-04 23:53 53.69648 -21.90739 37351 ft 497 kts 72°
2026-05-04 23:53 53.71533 -21.79514 37347 ft 497 kts 72°
2026-05-04 23:54 53.73427 -21.68291 37327 ft 496 kts 71°
2026-05-04 23:54 53.75353 -21.57167 37323 ft 487 kts 70°
2026-05-04 23:55 53.77216 -21.46337 37324 ft 473 kts 70°
2026-05-04 23:55 53.78939 -21.35836 37341 ft 461 kts 70°
2026-05-04 23:56 53.79776 -21.30642 37329 ft 455 kts 70°
2026-05-04 23:56 53.81418 -21.20425 37319 ft 445 kts 70°
2026-05-04 23:57 53.83026 -21.10404 37327 ft 435 kts 70°
2026-05-04 23:57 53.84592 -21.00614 37316 ft 426 kts 70°
2026-05-04 23:58 53.86118 -20.91017 37318 ft 418 kts 70°
2026-05-04 23:58 53.87605 -20.81612 37315 ft 409 kts 69°
2026-05-04 23:59 53.89043 -20.72454 37317 ft 399 kts 69°
2026-05-04 23:59 53.90441 -20.63449 37266 ft 390 kts 70°
2026-05-05 00:00 53.91575 -20.56066 36990 ft 389 kts 70°
2026-05-05 00:00 53.92030 -20.53109 36872 ft 389 kts 69°
2026-05-05 00:00 53.92952 -20.47180 36660 ft 388 kts 69°
2026-05-05 00:00 53.93649 -20.42699 36238 ft 399 kts 69°
2026-05-05 00:01 53.94380 -20.38057 35763 ft 408 kts 66°
2026-05-05 00:01 53.96419 -20.29123 35595 ft 412 kts 69°
2026-05-05 00:02 53.97413 -20.19623 35939 ft 400 kts 76°
2026-05-05 00:02 53.97879 -20.15003 36071 ft 395 kts 72°
2026-05-05 00:02 53.98494 -20.10426 35846 ft 400 kts 69°
2026-05-05 00:02 53.99200 -20.05786 35398 ft 411 kts 69°
2026-05-05 00:03 53.99868 -20.01032 35246 ft 414 kts 75°
2026-05-05 00:03 54.00135 -19.96178 35350 ft 415 kts 94°
2026-05-05 00:03 53.99649 -19.91361 35399 ft 422 kts 102°
2026-05-05 00:03 53.99211 -19.86383 35480 ft 429 kts 89°
2026-05-05 00:04 53.99363 -19.81296 35565 ft 435 kts 82°
2026-05-05 00:04 54.00142 -19.70916 35685 ft 450 kts 81°
2026-05-05 00:05 54.00721 -19.60116 35812 ft 465 kts 85°
2026-05-05 00:05 54.01020 -19.49039 35926 ft 479 kts 86°
2026-05-05 00:06 54.01198 -19.37573 36027 ft 490 kts 87°
2026-05-05 00:06 54.01352 -19.25876 36233 ft 498 kts 87°
2026-05-05 00:06 54.01429 -19.19983 36430 ft 498 kts 87°
2026-05-05 00:07 54.01507 -19.14095 36688 ft 497 kts 87°
2026-05-05 00:07 54.01584 -19.08205 36956 ft 497 kts 87°
2026-05-05 00:07 54.01659 -19.02400 37187 ft 496 kts 87°
2026-05-05 00:07 54.01733 -18.96528 37400 ft 496 kts 87°
2026-05-05 00:08 54.01804 -18.90663 37653 ft 495 kts 87°
2026-05-05 00:08 54.01872 -18.84802 37898 ft 495 kts 87°
2026-05-05 00:08 54.01937 -18.78933 38105 ft 495 kts 87°
2026-05-05 00:08 54.01998 -18.73078 38312 ft 495 kts 87°
2026-05-05 00:09 54.02057 -18.67226 38542 ft 494 kts 87°
2026-05-05 00:09 54.02112 -18.61442 38763 ft 494 kts 87°
2026-05-05 00:09 54.02164 -18.55607 38934 ft 494 kts 87°
2026-05-05 00:09 54.02214 -18.49767 39081 ft 494 kts 87°
2026-05-05 00:10 54.02261 -18.43937 39182 ft 493 kts 88°
2026-05-05 00:10 54.02347 -18.32240 39278 ft 494 kts 87°
2026-05-05 00:11 54.02421 -18.20523 39278 ft 495 kts 88°
2026-05-05 00:11 54.02483 -18.08801 39281 ft 495 kts 88°
2026-05-05 00:12 54.02534 -17.97167 39275 ft 494 kts 88°
2026-05-05 00:12 54.02574 -17.85481 39270 ft 494 kts 88°
2026-05-05 00:13 54.02603 -17.73813 39267 ft 493 kts 88°
2026-05-05 00:13 54.02620 -17.62156 39267 ft 492 kts 88°
2026-05-05 00:14 54.02627 -17.50490 39266 ft 492 kts 88°
2026-05-05 00:14 54.02621 -17.38833 39261 ft 492 kts 88°
2026-05-05 00:15 54.02605 -17.27252 39262 ft 492 kts 88°
2026-05-05 00:15 54.02577 -17.15617 39258 ft 492 kts 88°
2026-05-05 00:16 54.02538 -17.03963 39258 ft 492 kts 89°
2026-05-05 00:16 54.02488 -16.92305 39258 ft 493 kts 89°
2026-05-05 00:17 54.02426 -16.80645 39248 ft 493 kts 89°
2026-05-05 00:17 54.02353 -16.68997 39249 ft 492 kts 89°
2026-05-05 00:18 54.02269 -16.57358 39245 ft 492 kts 89°
2026-05-05 00:18 54.02174 -16.45718 39248 ft 492 kts 89°
2026-05-05 00:19 54.02068 -16.34139 39245 ft 492 kts 89°
2026-05-05 00:19 54.01950 -16.22494 39242 ft 492 kts 89°
2026-05-05 00:20 54.01821 -16.10841 39241 ft 492 kts 89°
2026-05-05 00:20 54.01680 -15.99194 39250 ft 492 kts 89°
2026-05-05 00:21 54.01528 -15.87542 39236 ft 492 kts 89°
2026-05-05 00:21 54.01364 -15.75906 39232 ft 492 kts 90°
2026-05-05 00:22 54.01189 -15.64265 39230 ft 492 kts 90°
2026-05-05 00:22 54.01003 -15.52645 39225 ft 491 kts 90°
2026-05-05 00:23 54.00807 -15.41096 39242 ft 491 kts 90°
2026-05-05 00:23 54.00597 -15.29480 39221 ft 491 kts 90°
2026-05-05 00:24 54.00375 -15.17865 39222 ft 491 kts 90°
2026-05-05 00:24 54.00140 -15.06257 39220 ft 491 kts 90°
2026-05-05 00:25 53.99941 -14.94672 39222 ft 490 kts 88°
2026-05-05 00:25 54.00006 -14.83084 39222 ft 490 kts 87°
2026-05-05 00:26 54.00098 -14.71578 39215 ft 490 kts 88°
2026-05-05 00:26 54.00132 -14.59991 39210 ft 490 kts 88°
2026-05-05 00:27 54.00132 -14.48392 39209 ft 490 kts 88°
2026-05-05 00:27 54.00119 -14.36790 39207 ft 490 kts 88°
2026-05-05 00:28 54.00097 -14.25258 39210 ft 490 kts 88°
2026-05-05 00:28 54.00061 -14.13656 39204 ft 490 kts 88°
2026-05-05 00:29 53.99996 -14.02069 39196 ft 491 kts 91°
2026-05-05 00:29 53.99099 -13.90550 39202 ft 492 kts 99°
2026-05-05 00:30 53.97813 -13.79135 39198 ft 492 kts 99°
2026-05-05 00:30 53.96528 -13.67796 39192 ft 492 kts 99°
2026-05-05 00:31 53.95246 -13.56367 39196 ft 492 kts 99°
2026-05-05 00:31 53.93968 -13.44957 39191 ft 492 kts 99°
2026-05-05 00:32 53.92679 -13.33533 39192 ft 492 kts 99°
2026-05-05 00:32 53.91381 -13.22143 39184 ft 492 kts 99°
2026-05-05 00:33 53.90070 -13.10752 39186 ft 492 kts 99°
2026-05-05 00:33 53.88758 -12.99449 39177 ft 492 kts 99°
2026-05-05 00:34 53.87424 -12.88063 39186 ft 491 kts 99°
2026-05-05 00:34 53.86084 -12.76713 39174 ft 491 kts 100°
2026-05-05 00:35 53.84731 -12.65364 39173 ft 491 kts 100°
2026-05-05 00:35 53.83368 -12.54017 39171 ft 491 kts 100°
2026-05-05 00:36 53.81994 -12.42684 39168 ft 490 kts 100°
2026-05-05 00:36 53.80620 -12.31444 39167 ft 490 kts 100°
2026-05-05 00:37 53.79228 -12.20145 39171 ft 490 kts 100°
2026-05-05 00:37 53.77827 -12.08866 39167 ft 490 kts 100°
2026-05-05 00:38 53.76413 -11.97584 39170 ft 490 kts 101°
2026-05-05 00:38 53.74999 -11.86389 39165 ft 490 kts 101°
2026-05-05 00:39 53.73567 -11.75139 39164 ft 490 kts 101°
2026-05-05 00:39 53.72123 -11.63883 39154 ft 490 kts 101°
2026-05-05 00:40 53.70671 -11.52660 39154 ft 490 kts 101°
2026-05-05 00:40 53.69205 -11.41416 39156 ft 490 kts 101°
2026-05-05 00:41 53.67731 -11.30202 39159 ft 489 kts 101°
2026-05-05 00:41 53.66249 -11.19010 39149 ft 489 kts 101°
2026-05-05 00:42 53.64765 -11.07891 39152 ft 489 kts 101°
2026-05-05 00:42 53.63261 -10.96708 39147 ft 489 kts 101°
2026-05-05 00:43 53.61746 -10.85527 39152 ft 489 kts 101°
2026-05-05 00:43 53.60222 -10.74370 39146 ft 489 kts 101°
2026-05-05 00:44 53.58685 -10.63195 39145 ft 489 kts 102°
2026-05-05 00:44 53.57149 -10.52111 39143 ft 489 kts 102°
2026-05-05 00:45 53.55593 -10.40973 39154 ft 489 kts 102°
2026-05-05 00:45 53.54027 -10.29841 39145 ft 489 kts 102°
2026-05-05 00:46 53.52453 -10.18730 39143 ft 488 kts 102°
2026-05-05 00:46 53.50869 -10.07633 39151 ft 488 kts 102°
2026-05-05 00:47 53.49274 -9.96539 39140 ft 488 kts 102°
2026-05-05 00:47 53.47943 -9.87344 39138 ft 488 kts 102°
2026-05-05 00:48 53.46331 -9.76272 39146 ft 488 kts 102°
2026-05-05 00:48 53.44710 -9.65225 39137 ft 488 kts 102°
2026-05-05 00:49 53.43078 -9.54180 39140 ft 488 kts 102°
2026-05-05 00:49 53.41438 -9.43151 39135 ft 487 kts 102°
2026-05-05 00:50 53.39788 -9.32135 39139 ft 487 kts 103°
2026-05-05 00:50 53.38127 -9.21123 39130 ft 487 kts 103°
2026-05-05 00:51 53.36469 -9.10207 39129 ft 486 kts 103°
2026-05-05 00:51 53.34794 -8.99252 39127 ft 485 kts 103°
2026-05-05 00:52 53.33113 -8.88334 39130 ft 484 kts 103°
2026-05-05 00:52 53.31425 -8.77438 39127 ft 483 kts 103°
2026-05-05 00:53 53.29738 -8.66625 39131 ft 483 kts 103°
2026-05-05 00:53 53.28032 -8.55766 39124 ft 483 kts 103°
2026-05-05 00:54 53.26319 -8.44923 39125 ft 482 kts 103°
2026-05-05 00:54 53.24594 -8.34084 39122 ft 482 kts 103°
2026-05-05 00:55 53.22860 -8.23256 39126 ft 483 kts 103°
2026-05-05 00:55 53.21116 -8.12434 39121 ft 483 kts 103°
2026-05-05 00:56 53.19361 -8.01619 39117 ft 483 kts 103°
2026-05-05 00:56 53.17603 -7.90849 39120 ft 483 kts 104°
2026-05-05 00:57 53.15794 -7.80031 39124 ft 484 kts 104°
2026-05-05 00:57 53.13987 -7.69207 39120 ft 484 kts 104°
2026-05-05 00:58 53.12204 -7.58470 39120 ft 484 kts 104°
2026-05-05 00:58 53.10400 -7.47661 39115 ft 484 kts 104°
2026-05-05 00:59 53.08585 -7.36873 39119 ft 484 kts 105°
2026-05-05 00:59 53.06757 -7.26085 39111 ft 484 kts 104°
2026-05-05 01:00 53.04938 -7.15314 39111 ft 484 kts 104°
2026-05-05 01:00 53.03110 -7.04626 39117 ft 483 kts 104°
2026-05-05 01:01 53.01243 -6.93907 39111 ft 482 kts 105°
2026-05-05 01:01 52.99383 -6.83213 39104 ft 482 kts 105°
2026-05-05 01:02 52.97507 -6.72528 39106 ft 481 kts 105°
2026-05-05 01:02 52.95634 -6.61872 39103 ft 481 kts 105°
2026-05-05 01:03 52.93762 -6.51243 39105 ft 480 kts 105°
2026-05-05 01:03 52.91890 -6.40628 39100 ft 480 kts 105°
2026-05-05 01:04 52.89996 -6.30030 39104 ft 479 kts 105°
2026-05-05 01:04 52.87129 -6.14151 39095 ft 479 kts 105°
2026-05-05 01:05 52.85222 -6.03656 39093 ft 479 kts 106°
2026-05-05 01:05 52.83295 -5.93103 39090 ft 479 kts 105°
2026-05-05 01:06 52.81352 -5.82549 39089 ft 480 kts 106°
2026-05-05 01:06 52.78793 -5.72372 39087 ft 481 kts 116°
2026-05-05 01:07 52.75713 -5.62562 39083 ft 481 kts 117°
2026-05-05 01:07 52.72622 -5.52740 39084 ft 482 kts 116°
2026-05-05 01:08 52.69549 -5.42901 39079 ft 482 kts 116°
2026-05-05 01:08 52.66501 -5.33124 39079 ft 482 kts 116°
2026-05-05 01:09 52.63427 -5.23289 39077 ft 482 kts 116°
2026-05-05 01:09 52.60343 -5.13467 39074 ft 483 kts 116°
2026-05-05 01:10 52.57253 -5.03668 39075 ft 482 kts 116°
2026-05-05 01:10 52.54153 -4.93878 39074 ft 482 kts 116°
2026-05-05 01:11 52.51049 -4.84114 39071 ft 482 kts 116°
2026-05-05 01:11 52.47950 -4.74407 39064 ft 482 kts 117°
2026-05-05 01:12 52.44825 -4.64677 39063 ft 482 kts 117°
2026-05-05 01:12 52.41699 -4.54982 39037 ft 477 kts 117°
2026-05-05 01:13 52.38649 -4.45530 38808 ft 463 kts 117°
2026-05-05 01:13 52.37149 -4.40894 38619 ft 459 kts 117°
2026-05-05 01:13 52.35673 -4.36345 38340 ft 456 kts 117°
2026-05-05 01:14 52.34187 -4.31773 38009 ft 454 kts 117°
2026-05-05 01:14 52.32702 -4.27216 37646 ft 453 kts 117°
2026-05-05 01:14 52.31220 -4.22676 37275 ft 452 kts 117°
2026-05-05 01:14 52.29739 -4.18149 36910 ft 451 kts 116°
2026-05-05 01:15 52.28261 -4.13638 36572 ft 450 kts 116°
2026-05-05 01:15 52.26785 -4.09141 36237 ft 448 kts 116°
2026-05-05 01:15 52.25311 -4.04658 35886 ft 447 kts 116°
2026-05-05 01:15 52.23842 -4.00197 35543 ft 446 kts 116°
2026-05-05 01:16 52.22374 -3.95748 35198 ft 444 kts 116°
2026-05-05 01:16 52.20909 -3.91318 34893 ft 442 kts 116°
2026-05-05 01:16 52.19450 -3.86911 34562 ft 441 kts 116°
2026-05-05 01:16 52.17995 -3.82526 34203 ft 439 kts 115°
2026-05-05 01:17 52.16542 -3.78154 33782 ft 439 kts 115°
2026-05-05 01:17 52.15088 -3.73780 33229 ft 440 kts 116°
2026-05-05 01:17 52.13624 -3.69385 32609 ft 443 kts 116°
2026-05-05 01:17 52.12152 -3.64973 31979 ft 445 kts 116°
2026-05-05 01:18 52.10665 -3.60530 31371 ft 447 kts 117°
2026-05-05 01:18 52.09172 -3.56076 30794 ft 449 kts 117°
2026-05-05 01:18 52.07687 -3.51656 30184 ft 451 kts 117°
2026-05-05 01:18 52.06179 -3.47174 29434 ft 453 kts 118°
2026-05-05 01:19 52.04658 -3.42664 28653 ft 455 kts 118°
2026-05-05 01:19 52.03130 -3.38137 27769 ft 460 kts 119°
2026-05-05 01:19 52.01582 -3.33565 26930 ft 462 kts 119°
2026-05-05 01:19 52.00031 -3.28993 26417 ft 462 kts 119°
2026-05-05 01:20 51.98468 -3.24393 26216 ft 467 kts 119°
2026-05-05 01:20 51.96914 -3.19826 26050 ft 466 kts 119°
2026-05-05 01:20 51.95351 -3.15242 26047 ft 464 kts 119°
2026-05-05 01:20 51.93785 -3.10652 26047 ft 466 kts 119°
2026-05-05 01:21 51.92215 -3.06061 26039 ft 466 kts 119°
2026-05-05 01:21 51.90643 -3.01474 26032 ft 466 kts 120°
2026-05-05 01:21 51.89071 -2.96893 26030 ft 465 kts 120°
2026-05-05 01:21 51.87497 -2.92316 26027 ft 465 kts 120°
2026-05-05 01:22 51.85919 -2.87735 26017 ft 465 kts 120°
2026-05-05 01:22 51.84340 -2.83162 26021 ft 465 kts 120°
2026-05-05 01:22 51.82760 -2.78594 26049 ft 466 kts 120°
2026-05-05 01:22 51.81178 -2.74028 26049 ft 466 kts 120°
2026-05-05 01:23 51.79588 -2.69446 26044 ft 466 kts 120°
2026-05-05 01:23 51.78020 -2.64939 26055 ft 467 kts 120°
2026-05-05 01:23 51.76431 -2.60379 26052 ft 466 kts 121°
2026-05-05 01:23 51.74842 -2.55824 26051 ft 465 kts 121°
2026-05-05 01:24 51.73256 -2.51287 26048 ft 464 kts 121°
2026-05-05 01:24 51.71668 -2.46752 26043 ft 463 kts 121°
2026-05-05 01:24 51.70080 -2.42227 26046 ft 463 kts 121°
2026-05-05 01:24 51.68493 -2.37712 26031 ft 464 kts 121°
2026-05-05 01:25 51.66899 -2.33183 26040 ft 464 kts 121°
2026-05-05 01:25 51.65298 -2.28646 26049 ft 465 kts 121°
2026-05-05 01:25 51.63698 -2.24119 26051 ft 466 kts 121°
2026-05-05 01:25 51.62089 -2.19576 26047 ft 466 kts 121°
2026-05-05 01:26 51.60480 -2.15040 26039 ft 467 kts 121°
2026-05-05 01:26 51.58871 -2.10511 26043 ft 467 kts 121°
2026-05-05 01:26 51.57258 -2.05980 26042 ft 467 kts 121°
2026-05-05 01:26 51.55638 -2.01479 26044 ft 466 kts 122°
2026-05-05 01:27 51.53884 -1.97106 26037 ft 465 kts 126°
2026-05-05 01:27 51.52072 -1.92895 26039 ft 464 kts 127°
2026-05-05 01:27 51.50206 -1.88668 26032 ft 464 kts 127°
2026-05-05 01:27 51.48339 -1.84443 26032 ft 465 kts 127°
2026-05-05 01:28 51.46472 -1.80208 26033 ft 465 kts 127°
2026-05-05 01:28 51.44607 -1.75959 26038 ft 466 kts 127°
2026-05-05 01:28 51.42747 -1.71710 26027 ft 466 kts 127°
2026-05-05 01:28 51.40886 -1.67455 26029 ft 467 kts 127°
2026-05-05 01:29 51.39024 -1.63194 26029 ft 467 kts 127°
2026-05-05 01:29 51.37160 -1.58932 26029 ft 467 kts 127°
2026-05-05 01:29 51.35299 -1.54682 26027 ft 466 kts 127°
2026-05-05 01:29 51.33433 -1.50428 26016 ft 466 kts 127°
2026-05-05 01:30 51.31570 -1.46188 26013 ft 466 kts 127°
2026-05-05 01:30 51.29706 -1.41953 26009 ft 465 kts 126°
2026-05-05 01:30 51.27840 -1.37721 26009 ft 465 kts 127°
2026-05-05 01:30 51.26000 -1.33555 26012 ft 465 kts 127°
2026-05-05 01:31 51.24135 -1.29342 26017 ft 465 kts 127°
2026-05-05 01:31 51.22267 -1.25126 26017 ft 465 kts 127°
2026-05-05 01:31 51.20399 -1.20916 26015 ft 465 kts 127°
2026-05-05 01:31 51.18528 -1.16708 26019 ft 465 kts 127°
2026-05-05 01:32 51.16654 -1.12500 26024 ft 465 kts 127°
2026-05-05 01:32 51.14782 -1.08302 26020 ft 465 kts 127°
2026-05-05 01:32 51.12905 -1.04101 26018 ft 465 kts 127°
2026-05-05 01:32 51.11028 -0.99907 26023 ft 465 kts 127°
2026-05-05 01:33 51.09151 -0.95719 26015 ft 465 kts 127°
2026-05-05 01:33 51.07269 -0.91527 26001 ft 466 kts 127°
2026-05-05 01:33 51.05382 -0.87328 26020 ft 467 kts 127°
2026-05-05 01:33 51.03488 -0.83123 26018 ft 468 kts 127°
2026-05-05 01:34 51.01593 -0.78923 26001 ft 468 kts 127°
2026-05-05 01:34 51.00335 -0.76137 26019 ft 468 kts 127°
2026-05-05 01:34 50.98436 -0.71939 26006 ft 468 kts 127°
2026-05-05 01:34 50.96534 -0.67742 25999 ft 468 kts 127°
2026-05-05 01:35 50.94631 -0.63547 26008 ft 468 kts 127°
2026-05-05 01:35 50.92733 -0.59370 25991 ft 468 kts 127°
2026-05-05 01:35 50.90828 -0.55184 26007 ft 467 kts 127°
2026-05-05 01:35 50.88924 -0.51008 25992 ft 467 kts 127°
2026-05-05 01:36 50.87021 -0.46842 26010 ft 467 kts 127°
2026-05-05 01:36 50.85118 -0.42682 25996 ft 466 kts 127°
2026-05-05 01:36 50.83213 -0.38525 26008 ft 466 kts 127°
2026-05-05 01:36 50.81331 -0.34424 25989 ft 465 kts 127°
2026-05-05 01:37 50.79431 -0.30288 25991 ft 465 kts 127°
2026-05-05 01:37 50.77530 -0.26160 25993 ft 465 kts 127°
2026-05-05 01:37 50.75625 -0.22028 25993 ft 465 kts 127°
2026-05-05 01:37 50.73723 -0.17909 25993 ft 465 kts 127°
2026-05-05 01:38 50.71818 -0.13790 25994 ft 465 kts 127°
2026-05-05 01:38 50.69907 -0.09666 26007 ft 465 kts 127°
2026-05-05 01:38 50.67995 -0.05544 25989 ft 465 kts 127°
2026-05-05 01:38 50.66080 -0.01424 26011 ft 465 kts 127°
2026-05-05 01:39 50.64165 0.02690 26001 ft 465 kts 128°
2026-05-05 01:39 50.62251 0.06797 26003 ft 464 kts 128°
2026-05-05 01:39 50.60342 0.10885 25998 ft 463 kts 128°
2026-05-05 01:39 50.58432 0.14967 25998 ft 463 kts 128°
2026-05-05 01:40 50.56524 0.19042 25993 ft 462 kts 128°
2026-05-05 01:40 50.54617 0.23106 25991 ft 462 kts 128°
2026-05-05 01:40 50.52706 0.27172 25991 ft 462 kts 128°
2026-05-05 01:40 50.50793 0.31235 25989 ft 462 kts 128°
2026-05-05 01:41 50.48908 0.35233 25991 ft 462 kts 128°
2026-05-05 01:41 50.46969 0.39340 25978 ft 462 kts 128°
2026-05-05 01:41 50.45055 0.43384 25990 ft 462 kts 128°
2026-05-05 01:41 50.43161 0.47380 25977 ft 462 kts 128°
2026-05-05 01:42 50.41237 0.51432 25976 ft 462 kts 128°
2026-05-05 01:42 50.39316 0.55475 25979 ft 462 kts 128°
2026-05-05 01:42 50.37397 0.59509 25983 ft 461 kts 129°
2026-05-05 01:42 50.35353 0.63361 25979 ft 459 kts 134°
2026-05-05 01:43 50.33108 0.66863 25629 ft 450 kts 140°
2026-05-05 01:43 50.30701 0.69894 25244 ft 439 kts 143°
2026-05-05 01:43 50.28319 0.72808 24869 ft 433 kts 142°
2026-05-05 01:43 50.25984 0.75705 24510 ft 431 kts 142°
2026-05-05 01:44 50.23625 0.78652 24132 ft 427 kts 142°
2026-05-05 01:44 50.21346 0.81507 23788 ft 425 kts 142°
2026-05-05 01:44 50.19039 0.84397 23403 ft 423 kts 141°
2026-05-05 01:44 50.16754 0.87245 22995 ft 418 kts 141°
2026-05-05 01:45 50.14497 0.90051 22609 ft 412 kts 141°
2026-05-05 01:45 50.12249 0.92838 22261 ft 416 kts 141°
2026-05-05 01:45 50.09989 0.95642 21936 ft 411 kts 141°
2026-05-05 01:45 50.07767 0.98380 21559 ft 401 kts 142°
2026-05-05 01:46 50.05592 1.01008 21203 ft 387 kts 145°
2026-05-05 01:46 50.03300 1.03050 20944 ft 375 kts 153°
2026-05-05 01:46 50.00963 1.04790 20589 ft 369 kts 154°
2026-05-05 01:46 49.98669 1.06439 20272 ft 366 kts 154°
2026-05-05 01:47 49.96363 1.08097 19956 ft 364 kts 154°
2026-05-05 01:47 49.94075 1.09760 19657 ft 362 kts 154°
2026-05-05 01:47 49.91802 1.11429 19346 ft 360 kts 154°
2026-05-05 01:47 49.89540 1.13103 19040 ft 359 kts 153°
2026-05-05 01:48 49.87295 1.14773 18738 ft 357 kts 153°
2026-05-05 01:48 49.85052 1.16446 18429 ft 357 kts 153°
2026-05-05 01:48 49.82818 1.18114 18102 ft 356 kts 153°
2026-05-05 01:48 49.80589 1.19777 17775 ft 355 kts 153°
2026-05-05 01:49 49.78369 1.21432 17447 ft 353 kts 153°
2026-05-05 01:49 49.76157 1.23079 17128 ft 352 kts 153°
2026-05-05 01:49 49.73958 1.24716 16844 ft 349 kts 153°
2026-05-05 01:49 49.71774 1.26340 16560 ft 347 kts 153°
2026-05-05 01:50 49.69603 1.27951 16240 ft 345 kts 153°
2026-05-05 01:50 49.67467 1.29537 15951 ft 343 kts 153°
2026-05-05 01:50 49.65324 1.31125 15659 ft 341 kts 153°
2026-05-05 01:50 49.63193 1.32703 15369 ft 339 kts 153°
2026-05-05 01:51 49.61071 1.34273 15085 ft 337 kts 153°
2026-05-05 01:51 49.58956 1.35835 14802 ft 336 kts 154°
2026-05-05 01:51 49.56849 1.37390 14504 ft 335 kts 154°
2026-05-05 01:51 49.54750 1.38939 14226 ft 335 kts 153°
2026-05-05 01:52 49.52651 1.40487 13947 ft 334 kts 153°
2026-05-05 01:52 49.50554 1.42030 13642 ft 334 kts 153°
2026-05-05 01:52 49.48451 1.43575 13336 ft 335 kts 153°
2026-05-05 01:52 49.46354 1.45114 13030 ft 334 kts 153°
2026-05-05 01:53 49.44262 1.46647 12732 ft 332 kts 153°
2026-05-05 01:53 49.42182 1.48169 12441 ft 330 kts 153°
2026-05-05 01:53 49.40112 1.49683 12152 ft 328 kts 153°
2026-05-05 01:53 49.38079 1.51170 11882 ft 327 kts 153°
2026-05-05 01:54 49.36029 1.52670 11617 ft 324 kts 153°
2026-05-05 01:54 49.34011 1.54147 11348 ft 319 kts 153°
2026-05-05 01:54 49.32068 1.55676 11043 ft 306 kts 144°
2026-05-05 01:54 49.30640 1.57988 10780 ft 297 kts 119°
2026-05-05 01:55 49.29868 1.60871 10547 ft 290 kts 103°
2026-05-05 01:55 49.29607 1.63902 10309 ft 284 kts 94°
2026-05-05 01:55 49.29507 1.66910 10060 ft 281 kts 92°
2026-05-05 01:55 49.29410 1.69868 9821 ft 276 kts 93°
2026-05-05 01:56 49.29301 1.72740 9565 ft 271 kts 93°
2026-05-05 01:56 49.28946 1.75497 9288 ft 262 kts 116°
2026-05-05 01:56 49.27863 1.77730 9140 ft 263 kts 134°
2026-05-05 01:56 49.26542 1.79685 8899 ft 265 kts 134°
2026-05-05 01:57 49.25202 1.81657 8652 ft 269 kts 135°
2026-05-05 01:57 49.23844 1.83645 8435 ft 271 kts 135°
2026-05-05 01:57 49.22482 1.85633 8185 ft 269 kts 135°
2026-05-05 01:57 49.21142 1.87590 7952 ft 264 kts 134°
2026-05-05 01:58 49.19836 1.89496 7727 ft 261 kts 134°
2026-05-05 01:58 49.18526 1.91411 7515 ft 260 kts 134°
2026-05-05 01:58 49.17222 1.93313 7289 ft 259 kts 134°
2026-05-05 01:58 49.15923 1.95209 7064 ft 258 kts 134°
2026-05-05 01:59 49.14630 1.97094 6847 ft 257 kts 134°
2026-05-05 01:59 49.13338 1.98978 6629 ft 257 kts 134°
2026-05-05 01:59 49.12045 2.00860 6420 ft 257 kts 134°
2026-05-05 01:59 49.10752 2.02740 6174 ft 257 kts 134°
2026-05-05 02:00 49.09459 2.04621 5951 ft 257 kts 134°
2026-05-05 02:00 49.08162 2.06503 5723 ft 257 kts 134°
2026-05-05 02:00 49.06879 2.08362 5524 ft 252 kts 134°
2026-05-05 02:00 49.05618 2.10192 5299 ft 248 kts 134°
2026-05-05 02:01 49.04375 2.11997 5082 ft 244 kts 134°
2026-05-05 02:01 49.03155 2.13770 4869 ft 241 kts 133°
2026-05-05 02:01 49.01999 2.15467 4664 ft 237 kts 133°
2026-05-05 02:01 49.01044 2.17357 4516 ft 220 kts 109°
2026-05-05 02:02 49.00830 2.19519 4325 ft 197 kts 89°
2026-05-05 02:02 49.00848 2.21541 4177 ft 187 kts 86°
2026-05-05 02:02 49.00921 2.23474 4140 ft 178 kts 85°
2026-05-05 02:02 49.01013 2.25328 3886 ft 172 kts 84°
2026-05-05 02:03 49.01110 2.27101 3674 ft 169 kts 83°
2026-05-05 02:03 49.01211 2.28868 3483 ft 163 kts 82°
2026-05-05 02:03 49.01307 2.30590 3256 ft 164 kts 82°
2026-05-05 02:03 49.01402 2.32330 3036 ft 165 kts 82°
2026-05-05 02:04 49.01493 2.34065 2813 ft 164 kts 82°
2026-05-05 02:04 49.01584 2.35798 2583 ft 164 kts 82°
2026-05-05 02:04 49.01676 2.37534 2360 ft 163 kts 83°
2026-05-05 02:04 49.01767 2.39243 2143 ft 163 kts 81°
2026-05-05 02:05 49.01858 2.40958 1916 ft 162 kts 82°
2026-05-05 02:05 49.01947 2.42654 1710 ft 160 kts 81°
2026-05-05 02:05 49.02039 2.44334 1477 ft 160 kts 81°
2026-05-05 02:05 49.02129 2.46019 1281 ft 162 kts 81°
2026-05-05 02:06 49.02225 2.47767 1044 ft 165 kts 79°
2026-05-05 02:06 49.02296 2.49112 852 ft 164 kts 80°
2026-05-05 02:06 49.02386 2.50731 641 ft 148 kts 78°
2026-05-05 02:06 49.02459 2.52242 452 ft 139 kts 78°
2026-05-05 02:07 49.02544 2.53636 365 ft 119 kts 86°
2026-05-05 02:07 49.02572 2.54398 357 ft 44 kts 96°
2026-05-05 02:07 49.02500 2.54805 363 ft 30 kts 105°
2026-05-05 02:07 49.02453 2.55092 361 ft 27 kts 100°
2026-05-05 02:08 49.02457 2.55374 359 ft 27 kts 84°
2026-05-05 02:08 49.02392 2.55606 367 ft 27 kts 160°
2026-05-05 02:08 49.02210 2.55641 366 ft 27 kts 175°
2026-05-05 02:08 49.02071 2.55514 365 ft 27 kts 257°
2026-05-05 02:09 49.02051 2.55233 359 ft 27 kts 264°
2026-05-05 02:09 49.02034 2.54951 363 ft 27 kts 265°
2026-05-05 02:09 49.02022 2.54669 360 ft 27 kts 267°
2026-05-05 02:09 49.02002 2.54388 366 ft 27 kts 263°
2026-05-05 02:10 49.01926 2.54150 365 ft 27 kts 201°
2026-05-05 02:10 49.01803 2.54292 366 ft 27 kts 102°
2026-05-05 02:10 49.01742 2.54482 362 ft 14 kts 160°
2026-05-05 02:10 49.01698 2.54461 363 ft 6 kts 206°
2026-05-05 02:11 49.01674 2.54436 366 ft 0 kts 216°